Observation data for Palo Duro Reservoir 1NW on 11/08/2019      Previous  Date       Current Mesonet Observations  Soil Data  Daily Summary Page  Observations in Plain Language
KPD4 080600Z 18006KT 03/M03 A3044 RMK A01 T00341028  RH  064%=      5-min Rain = 0
KPD4 080601Z 18006KT 03/M03 A3044 RMK A01 T00341028  RH  064%=      5-min Rain = 0
KPD4 080602Z 18005KT 03/M03 A3044 RMK A01 T00341028  RH  064%=      5-min Rain = 0
KPD4 080603Z 18005KT 03/M03 A3044 RMK A01 T00341028  RH  064%=      5-min Rain = 0
KPD4 080604Z 18006KT 03/M03 A3043 RMK A01 T00341027  RH  064%=      5-min Rain = 0
KPD4 080605Z 18007KT 03/M03 A3043 RMK A01 T00341028  RH  064%=      5-min Rain = 0
KPD4 080606Z 18005KT 03/M03 A3043 RMK A01 T00341028  RH  064%=      5-min Rain = 0
KPD4 080607Z 17006KT 03/M03 A3043 RMK A01 T00341027  RH  064%=      5-min Rain = 0
KPD4 080608Z 18006KT 03/M03 A3043 RMK A01 T00341027  RH  064%=      5-min Rain = 0
KPD4 080609Z 18006KT 03/M03 A3043 RMK A01 T00341027  RH  064%=      5-min Rain = 0
KPD4 080610Z 19006KT 03/M03 A3043 RMK A01 T00341027  RH  064%=      5-min Rain = 0
KPD4 080611Z 19005KT 03/M03 A3043 RMK A01 T00341027  RH  064%=      5-min Rain = 0
KPD4 080612Z 17005KT 03/M03 A3043 RMK A01 T00341027  RH  064%=      5-min Rain = 0
KPD4 080613Z 18004KT 03/M03 A3043 RMK A01 T00341026  RH  064%=      5-min Rain = 0
KPD4 080614Z 17005KT 03/M03 A3043 RMK A01 T00341026  RH  065%=      5-min Rain = 0
KPD4 080615Z 18006KT 03/M03 A3043 RMK A01 T00341026  RH  065%=      5-min Rain = 0
KPD4 080616Z 18006KT 03/M03 A3043 RMK A01 T00341027  RH  064%=      5-min Rain = 0
KPD4 080617Z 18005KT 03/M03 A3043 RMK A01 T00341026  RH  065%=      5-min Rain = 0
KPD4 080618Z 18005KT 03/M03 A3043 RMK A01 T00341026  RH  065%=      5-min Rain = 0
KPD4 080619Z 18006KT 03/M03 A3043 RMK A01 T00341026  RH  065%=      5-min Rain = 0
KPD4 080620Z 18007KT 03/M03 A3043 RMK A01 T00341027  RH  065%=      5-min Rain = 0
KPD4 080621Z 18007KT 03/M03 A3043 RMK A01 T00341027  RH  065%=      5-min Rain = 0
KPD4 080622Z 18006KT 03/M03 A3043 RMK A01 T00341026  RH  065%=      5-min Rain = 0
KPD4 080623Z 18006KT 03/M03 A3043 RMK A01 T00341026  RH  065%=      5-min Rain = 0
KPD4 080624Z 18007KT 03/M03 A3043 RMK A01 T00341026  RH  065%=      5-min Rain = 0
KPD4 080625Z 18007KT 03/M03 A3043 RMK A01 T00341026  RH  065%=      5-min Rain = 0
KPD4 080626Z 18008KT 03/M03 A3043 RMK A01 T00341026  RH  065%=      5-min Rain = 0
KPD4 080627Z 18008KT 03/M03 A3043 RMK A01 T00341027  RH  064%=      5-min Rain = 0
KPD4 080628Z 18008KT 03/M03 A3043 RMK A01 T00341026  RH  065%=      5-min Rain = 0
KPD4 080629Z 18008KT 03/M03 A3043 RMK A01 T00341026  RH  065%=      5-min Rain = 0
KPD4 080630Z 18008KT 03/M03 A3043 RMK A01 T00341026  RH  065%=      5-min Rain = 0
KPD4 080631Z 18007KT 03/M03 A3043 RMK A01 T00341026  RH  065%=      5-min Rain = 0
KPD4 080632Z 18006KT 03/M03 A3043 RMK A01 T00341026  RH  065%=      5-min Rain = 0
KPD4 080633Z 18005KT 03/M03 A3043 RMK A01 T00341025  RH  065%=      5-min Rain = 0
KPD4 080634Z 18008KT 03/M03 A3043 RMK A01 T00341025  RH  065%=      5-min Rain = 0
KPD4 080635Z 18009KT 03/M03 A3043 RMK A01 T00341027  RH  064%=      5-min Rain = 0
KPD4 080636Z 18008KT 03/M03 A3043 RMK A01 T00341028  RH  064%=      5-min Rain = 0
KPD4 080637Z 18009KT 03/M03 A3043 RMK A01 T00341028  RH  064%=      5-min Rain = 0
KPD4 080638Z 18008KT 03/M03 A3043 RMK A01 T00341028  RH  064%=      5-min Rain = 0
KPD4 080639Z 18008KT 03/M03 A3043 RMK A01 T00341028  RH  064%=      5-min Rain = 0
KPD4 080640Z 18008KT 03/M03 A3043 RMK A01 T00341028  RH  064%=      5-min Rain = 0
KPD4 080641Z 18008KT 03/M03 A3043 RMK A01 T00331028  RH  064%=      5-min Rain = 0
KPD4 080642Z 18008KT 03/M03 A3043 RMK A01 T00341028  RH  064%=      5-min Rain = 0
KPD4 080643Z 18009KT 03/M03 A3042 RMK A01 T00341028  RH  064%=      5-min Rain = 0
KPD4 080644Z 18009KT 03/M03 A3042 RMK A01 T00341028  RH  064%=      5-min Rain = 0
KPD4 080645Z 18007KT 03/M03 A3042 RMK A01 T00341028  RH  064%=      5-min Rain = 0
KPD4 080646Z 18008KT 03/M03 A3042 RMK A01 T00331028  RH  064%=      5-min Rain = 0
KPD4 080647Z 18008KT 03/M03 A3042 RMK A01 T00341028  RH  064%=      5-min Rain = 0
KPD4 080648Z 18007KT 03/M03 A3042 RMK A01 T00341027  RH  064%=      5-min Rain = 0
KPD4 080649Z 18006KT 03/M03 A3042 RMK A01 T00341027  RH  064%=      5-min Rain = 0
KPD4 080650Z 18007KT 03/M03 A3043 RMK A01 T00331028  RH  064%=      5-min Rain = 0
KPD4 080651Z 17007KT 03/M03 A3043 RMK A01 T00341028  RH  064%=      5-min Rain = 0
KPD4 080652Z 18008KT 03/M03 A3043 RMK A01 T00331029  RH  063%=      5-min Rain = 0
KPD4 080653Z 18007KT 03/M03 A3042 RMK A01 T00341029  RH  063%=      5-min Rain = 0
KPD4 080654Z 17007KT 03/M03 A3042 RMK A01 T00341029  RH  063%=      5-min Rain = 0
KPD4 080655Z 18008KT 03/M03 A3042 RMK A01 T00331029  RH  063%=      5-min Rain = 0
KPD4 080656Z 18007KT 03/M03 A3042 RMK A01 T00331029  RH  064%=      5-min Rain = 0
KPD4 080657Z 18007KT 03/M03 A3042 RMK A01 T00331029  RH  064%=      5-min Rain = 0
KPD4 080658Z 18006KT 03/M03 A3042 RMK A01 T00331029  RH  064%=      5-min Rain = 0
KPD4 080659Z 17007KT 03/M03 A3042 RMK A01 T00331028  RH  064%=      5-min Rain = 0
KPD4 080700Z 18008KT 03/M03 A3042 RMK A01 T00331028  RH  064%=      5-min Rain = 0
KPD4 080701Z 18008KT 03/M03 A3042 RMK A01 T00331028  RH  064%=      5-min Rain = 0
KPD4 080702Z 18008KT 03/M03 A3042 RMK A01 T00331027  RH  065%=      5-min Rain = 0
KPD4 080703Z 18008KT 03/M03 A3042 RMK A01 T00331027  RH  065%=      5-min Rain = 0
KPD4 080704Z 17008KT 03/M03 A3042 RMK A01 T00331027  RH  065%=      5-min Rain = 0
KPD4 080705Z 18008KT 03/M03 A3042 RMK A01 T00331026  RH  065%=      5-min Rain = 0
KPD4 080706Z 18007KT 03/M03 A3042 RMK A01 T00331026  RH  065%=      5-min Rain = 0
KPD4 080707Z 18007KT 03/M03 A3042 RMK A01 T00331026  RH  065%=      5-min Rain = 0
KPD4 080708Z 18007KT 03/M03 A3042 RMK A01 T00331027  RH  065%=      5-min Rain = 0
KPD4 080709Z 18008KT 03/M03 A3042 RMK A01 T00331027  RH  065%=      5-min Rain = 0
KPD4 080710Z 18007KT 03/M03 A3042 RMK A01 T00331028  RH  064%=      5-min Rain = 0
KPD4 080711Z 18008KT 03/M03 A3042 RMK A01 T00331029  RH  064%=      5-min Rain = 0
KPD4 080712Z 18009KT 03/M03 A3042 RMK A01 T00331029  RH  064%=      5-min Rain = 0
KPD4 080713Z 18009KT 03/M03 A3042 RMK A01 T00331029  RH  063%=      5-min Rain = 0
KPD4 080714Z 18007KT 03/M03 A3042 RMK A01 T00331030  RH  063%=      5-min Rain = 0
KPD4 080715Z 18008KT 03/M03 A3042 RMK A01 T00331030  RH  063%=      5-min Rain = 0
KPD4 080716Z 18009KT 03/M03 A3042 RMK A01 T00331030  RH  063%=      5-min Rain = 0
KPD4 080717Z 17008KT 03/M03 A3042 RMK A01 T00331031  RH  063%=      5-min Rain = 0
KPD4 080718Z 18008KT 03/M03 A3042 RMK A01 T00331030  RH  063%=      5-min Rain = 0
KPD4 080719Z 18009KT 03/M03 A3042 RMK A01 T00331030  RH  064%=      5-min Rain = 0
KPD4 080720Z 18008KT 03/M03 A3042 RMK A01 T00331030  RH  064%=      5-min Rain = 0
KPD4 080721Z 18007KT 03/M03 A3042 RMK A01 T00321030  RH  064%=      5-min Rain = 0
KPD4 080722Z 18008KT 03/M03 A3042 RMK A01 T00321029  RH  064%=      5-min Rain = 0
KPD4 080723Z 18008KT 03/M03 A3042 RMK A01 T00321029  RH  064%=      5-min Rain = 0
KPD4 080724Z 18008KT 03/M03 A3042 RMK A01 T00321029  RH  064%=      5-min Rain = 0
KPD4 080725Z 18009KT 03/M03 A3042 RMK A01 T00321029  RH  064%=      5-min Rain = 0
KPD4 080726Z 19008KT 03/M03 A3042 RMK A01 T00321029  RH  064%=      5-min Rain = 0
KPD4 080727Z 18007KT 03/M03 A3042 RMK A01 T00321029  RH  064%=      5-min Rain = 0
KPD4 080728Z 19008KT 03/M03 A3042 RMK A01 T00321029  RH  064%=      5-min Rain = 0
KPD4 080729Z 19007KT 03/M03 A3042 RMK A01 T00321029  RH  064%=      5-min Rain = 0
KPD4 080730Z 19007KT 03/M03 A3042 RMK A01 T00321028  RH  065%=      5-min Rain = 0
KPD4 080731Z 18007KT 03/M03 A3042 RMK A01 T00321028  RH  065%=      5-min Rain = 0
KPD4 080732Z 19009KT 03/M03 A3042 RMK A01 T00321028  RH  065%=      5-min Rain = 0
KPD4 080733Z 19008KT 03/M03 A3041 RMK A01 T00321027  RH  065%=      5-min Rain = 0
KPD4 080734Z 18008KT 03/M03 A3041 RMK A01 T00321027  RH  065%=      5-min Rain = 0
KPD4 080735Z 19008KT 03/M03 A3041 RMK A01 T00331026  RH  065%=      5-min Rain = 0
KPD4 080736Z 19008KT 03/M03 A3041 RMK A01 T00331027  RH  065%=      5-min Rain = 0
KPD4 080737Z 19008KT 03/M03 A3041 RMK A01 T00331026  RH  065%=      5-min Rain = 0
KPD4 080738Z 18007KT 03/M03 A3041 RMK A01 T00331026  RH  065%=      5-min Rain = 0
KPD4 080739Z 19008KT 03/M03 A3041 RMK A01 T00331026  RH  065%=      5-min Rain = 0
KPD4 080740Z 19007KT 03/M03 A3041 RMK A01 T00331026  RH  065%=      5-min Rain = 0
KPD4 080741Z 19008KT 03/M03 A3041 RMK A01 T00331026  RH  065%=      5-min Rain = 0
KPD4 080742Z 19007KT 03/M03 A3041 RMK A01 T00331026  RH  065%=      5-min Rain = 0
KPD4 080743Z 20007KT 03/M03 A3041 RMK A01 T00331026  RH  065%=      5-min Rain = 0
KPD4 080744Z 19009KT 03/M03 A3041 RMK A01 T00331027  RH  065%=      5-min Rain = 0
KPD4 080745Z 19009KT 03/M03 A3041 RMK A01 T00331028  RH  064%=      5-min Rain = 0
KPD4 080746Z 19009KT 03/M03 A3041 RMK A01 T00331029  RH  064%=      5-min Rain = 0
KPD4 080747Z 19010KT 03/M03 A3042 RMK A01 T00331029  RH  064%=      5-min Rain = 0
KPD4 080748Z 19009KT 03/M03 A3042 RMK A01 T00331030  RH  064%=      5-min Rain = 0
KPD4 080749Z 19010KT 03/M03 A3042 RMK A01 T00331030  RH  064%=      5-min Rain = 0
KPD4 080750Z 19010KT 03/M03 A3042 RMK A01 T00331030  RH  064%=      5-min Rain = 0
KPD4 080751Z 19009KT 03/M03 A3042 RMK A01 T00331030  RH  064%=      5-min Rain = 0
KPD4 080752Z 19009KT 03/M03 A3042 RMK A01 T00331029  RH  064%=      5-min Rain = 0
KPD4 080753Z 19010KT 03/M03 A3042 RMK A01 T00331029  RH  064%=      5-min Rain = 0
KPD4 080754Z 19009KT 03/M03 A3042 RMK A01 T00331029  RH  064%=      5-min Rain = 0
KPD4 080755Z 19008KT 03/M03 A3042 RMK A01 T00331029  RH  064%=      5-min Rain = 0
KPD4 080756Z 19008KT 03/M03 A3042 RMK A01 T00331029  RH  064%=      5-min Rain = 0
KPD4 080757Z 19009KT 03/M03 A3042 RMK A01 T00331028  RH  064%=      5-min Rain = 0
KPD4 080758Z 19009KT 03/M03 A3042 RMK A01 T00331028  RH  064%=      5-min Rain = 0
KPD4 080759Z 20010KT 03/M03 A3042 RMK A01 T00331028  RH  065%=      5-min Rain = 0
KPD4 080800Z 19009KT 03/M03 A3042 RMK A01 T00331027  RH  065%=      5-min Rain = 0
KPD4 080801Z 19009KT 03/M03 A3042 RMK A01 T00331027  RH  065%=      5-min Rain = 0
KPD4 080802Z 19009KT 03/M03 A3042 RMK A01 T00331027  RH  065%=      5-min Rain = 0
KPD4 080803Z 19010KT 03/M03 A3042 RMK A01 T00331028  RH  065%=      5-min Rain = 0
KPD4 080804Z 19010KT 03/M03 A3042 RMK A01 T00321028  RH  065%=      5-min Rain = 0
KPD4 080805Z 19009KT 03/M03 A3042 RMK A01 T00321028  RH  065%=      5-min Rain = 0
KPD4 080806Z 19008KT 03/M03 A3042 RMK A01 T00321028  RH  065%=      5-min Rain = 0
KPD4 080807Z 19007KT 03/M03 A3042 RMK A01 T00321027  RH  065%=      5-min Rain = 0
KPD4 080808Z 19007KT 03/M03 A3042 RMK A01 T00321027  RH  065%=      5-min Rain = 0
KPD4 080809Z 19008KT 03/M03 A3042 RMK A01 T00321027  RH  065%=      5-min Rain = 0
KPD4 080810Z 19008KT 03/M03 A3042 RMK A01 T00321026  RH  065%=      5-min Rain = 0
KPD4 080811Z 19008KT 03/M03 A3041 RMK A01 T00321027  RH  065%=      5-min Rain = 0
KPD4 080812Z 19007KT 03/M03 A3041 RMK A01 T00321026  RH  065%=      5-min Rain = 0
KPD4 080813Z 19007KT 03/M03 A3041 RMK A01 T00321026  RH  066%=      5-min Rain = 0
KPD4 080814Z 19007KT 03/M03 A3041 RMK A01 T00321026  RH  066%=      5-min Rain = 0
KPD4 080815Z 19007KT 03/M03 A3041 RMK A01 T00321026  RH  066%=      5-min Rain = 0
KPD4 080816Z 19008KT 03/M03 A3041 RMK A01 T00321026  RH  066%=      5-min Rain = 0
KPD4 080817Z 19008KT 03/M03 A3041 RMK A01 T00321026  RH  066%=      5-min Rain = 0
KPD4 080818Z 19008KT 03/M03 A3041 RMK A01 T00321026  RH  066%=      5-min Rain = 0
KPD4 080819Z 19007KT 03/M03 A3041 RMK A01 T00321026  RH  066%=      5-min Rain = 0
KPD4 080820Z 19007KT 03/M03 A3041 RMK A01 T00321026  RH  066%=      5-min Rain = 0
KPD4 080821Z 19006KT 03/M03 A3041 RMK A01 T00321026  RH  066%=      5-min Rain = 0
KPD4 080822Z 19006KT 03/M03 A3041 RMK A01 T00321026  RH  066%=      5-min Rain = 0
KPD4 080823Z 19007KT 03/M03 A3041 RMK A01 T00321025  RH  066%=      5-min Rain = 0
KPD4 080824Z 19008KT 03/M03 A3041 RMK A01 T00321026  RH  066%=      5-min Rain = 0
KPD4 080825Z 19009KT 03/M03 A3041 RMK A01 T00321026  RH  066%=      5-min Rain = 0
KPD4 080826Z 19009KT 03/M03 A3041 RMK A01 T00321026  RH  066%=      5-min Rain = 0
KPD4 080827Z 19008KT 03/M03 A3041 RMK A01 T00321026  RH  066%=      5-min Rain = 0
KPD4 080828Z 19008KT 03/M03 A3041 RMK A01 T00321026  RH  066%=      5-min Rain = 0
KPD4 080829Z 19008KT 03/M03 A3041 RMK A01 T00321026  RH  066%=      5-min Rain = 0
KPD4 080830Z 19007KT 03/M03 A304 RMK A01 T00321026  RH  066%=      5-min Rain = 0
KPD4 080831Z 19008KT 03/M03 A304 RMK A01 T00321026  RH  066%=      5-min Rain = 0
KPD4 080832Z 19008KT 03/M03 A304 RMK A01 T00331025  RH  066%=      5-min Rain = 0
KPD4 080833Z 19009KT 03/M03 A304 RMK A01 T00331025  RH  066%=      5-min Rain = 0
KPD4 080834Z 19008KT 03/M03 A304 RMK A01 T00331026  RH  066%=      5-min Rain = 0
KPD4 080835Z 19009KT 03/M03 A304 RMK A01 T00331026  RH  065%=      5-min Rain = 0
KPD4 080836Z 19008KT 03/M03 A304 RMK A01 T00331026  RH  065%=      5-min Rain = 0
KPD4 080837Z 19007KT 03/M03 A304 RMK A01 T00331027  RH  065%=      5-min Rain = 0
KPD4 080838Z 19009KT 03/M03 A304 RMK A01 T00331026  RH  065%=      5-min Rain = 0
KPD4 080839Z 19009KT 03/M03 A3041 RMK A01 T00331026  RH  065%=      5-min Rain = 0
KPD4 080840Z 19008KT 03/M03 A304 RMK A01 T00331026  RH  065%=      5-min Rain = 0
KPD4 080841Z 19008KT 03/M03 A304 RMK A01 T00321027  RH  065%=      5-min Rain = 0
KPD4 080842Z 19009KT 03/M03 A304 RMK A01 T00331027  RH  065%=      5-min Rain = 0
KPD4 080843Z 19009KT 03/M03 A304 RMK A01 T00331027  RH  065%=      5-min Rain = 0
KPD4 080844Z 19008KT 03/M03 A304 RMK A01 T00331028  RH  064%=      5-min Rain = 0
KPD4 080845Z 19007KT 03/M03 A304 RMK A01 T00331028  RH  064%=      5-min Rain = 0
KPD4 080846Z 19008KT 03/M03 A304 RMK A01 T00331028  RH  064%=      5-min Rain = 0
KPD4 080847Z 19009KT 03/M03 A304 RMK A01 T00331028  RH  064%=      5-min Rain = 0
KPD4 080848Z 19008KT 03/M03 A304 RMK A01 T00331028  RH  064%=      5-min Rain = 0
KPD4 080849Z 19009KT 03/M03 A304 RMK A01 T00331028  RH  064%=      5-min Rain = 0
KPD4 080850Z 19007KT 03/M03 A304 RMK A01 T00331029  RH  064%=      5-min Rain = 0
KPD4 080851Z 19007KT 03/M03 A304 RMK A01 T00331029  RH  064%=      5-min Rain = 0
KPD4 080852Z 19007KT 03/M03 A304 RMK A01 T00331028  RH  064%=      5-min Rain = 0
KPD4 080853Z 19008KT 03/M03 A304 RMK A01 T00331028  RH  064%=      5-min Rain = 0
KPD4 080854Z 18010KT 03/M03 A304 RMK A01 T00331028  RH  064%=      5-min Rain = 0
KPD4 080855Z 19010KT 03/M03 A304 RMK A01 T00331028  RH  064%=      5-min Rain = 0
KPD4 080856Z 18009KT 03/M03 A304 RMK A01 T00331029  RH  064%=      5-min Rain = 0
KPD4 080857Z 18009KT 03/M03 A304 RMK A01 T00331029  RH  064%=      5-min Rain = 0
KPD4 080858Z 19009KT 03/M03 A3039 RMK A01 T00331029  RH  064%=      5-min Rain = 0
KPD4 080859Z 19009KT 03/M03 A3039 RMK A01 T00331029  RH  064%=      5-min Rain = 0
KPD4 080900Z 19009KT 03/M03 A3039 RMK A01 T00331029  RH  064%=      5-min Rain = 0
KPD4 080901Z 19009KT 03/M03 A3039 RMK A01 T00331029  RH  063%=      5-min Rain = 0
KPD4 080902Z 19009KT 03/M03 A3039 RMK A01 T00331030  RH  063%=      5-min Rain = 0
KPD4 080903Z 19008KT 03/M03 A3039 RMK A01 T00331029  RH  064%=      5-min Rain = 0
KPD4 080904Z 19008KT 03/M03 A3039 RMK A01 T00331029  RH  064%=      5-min Rain = 0
KPD4 080905Z 19009KT 03/M03 A3039 RMK A01 T00331030  RH  064%=      5-min Rain = 0
KPD4 080906Z 19010KT 03/M03 A3039 RMK A01 T00331030  RH  063%=      5-min Rain = 0
KPD4 080907Z 19009KT 03/M03 A3039 RMK A01 T00331030  RH  063%=      5-min Rain = 0
KPD4 080908Z 19009KT 03/M03 A3039 RMK A01 T00331029  RH  064%=      5-min Rain = 0
KPD4 080909Z 20007KT 03/M03 A3039 RMK A01 T00331029  RH  064%=      5-min Rain = 0
KPD4 080910Z 19009KT 03/M03 A3039 RMK A01 T00331029  RH  064%=      5-min Rain = 0
KPD4 080911Z 19008KT 03/M03 A3039 RMK A01 T00331029  RH  064%=      5-min Rain = 0
KPD4 080912Z 20008KT 03/M03 A3039 RMK A01 T00331029  RH  064%=      5-min Rain = 0
KPD4 080913Z 19009KT 03/M03 A3039 RMK A01 T00331029  RH  064%=      5-min Rain = 0
KPD4 080914Z 19009KT 03/M03 A3039 RMK A01 T00331030  RH  063%=      5-min Rain = 0
KPD4 080915Z 19009KT 03/M03 A3039 RMK A01 T00331030  RH  064%=      5-min Rain = 0
KPD4 080916Z 19011KT 03/M03 A3039 RMK A01 T00331030  RH  063%=      5-min Rain = 0
KPD4 080917Z 19010KT 03/M03 A3039 RMK A01 T00331030  RH  063%=      5-min Rain = 0
KPD4 080918Z 19010KT 03/M03 A3039 RMK A01 T00331030  RH  063%=      5-min Rain = 0
KPD4 080919Z 19008KT 03/M03 A3039 RMK A01 T00331029  RH  064%=      5-min Rain = 0
KPD4 080920Z 19010KT 03/M03 A3039 RMK A01 T00331029  RH  064%=      5-min Rain = 0
KPD4 080921Z 19010KT 03/M03 A3038 RMK A01 T00331029  RH  064%=      5-min Rain = 0
KPD4 080922Z 19010KT 03/M03 A3038 RMK A01 T00331029  RH  064%=      5-min Rain = 0
KPD4 080923Z 19010KT 03/M03 A3038 RMK A01 T00331029  RH  064%=      5-min Rain = 0
KPD4 080924Z 19009KT 03/M03 A3038 RMK A01 T00331029  RH  064%=      5-min Rain = 0
KPD4 080925Z 19010KT 03/M03 A3038 RMK A01 T00331029  RH  064%=      5-min Rain = 0
KPD4 080926Z 19010KT 03/M03 A3038 RMK A01 T00331030  RH  063%=      5-min Rain = 0
KPD4 080927Z 19009KT 03/M03 A3038 RMK A01 T00331030  RH  063%=      5-min Rain = 0
KPD4 080928Z 19008KT 03/M03 A3038 RMK A01 T00331030  RH  063%=      5-min Rain = 0
KPD4 080929Z 19010KT 03/M03 A3038 RMK A01 T00331029  RH  064%=      5-min Rain = 0
KPD4 080930Z 19010KT 03/M03 A3038 RMK A01 T00331029  RH  064%=      5-min Rain = 0
KPD4 080931Z 19011KT 03/M03 A3038 RMK A01 T00331029  RH  064%=      5-min Rain = 0
KPD4 080932Z 19011KT 03/M03 A3038 RMK A01 T00331029  RH  064%=      5-min Rain = 0
KPD4 080933Z 19010KT 03/M03 A3038 RMK A01 T00331029  RH  064%=      5-min Rain = 0
KPD4 080934Z 19010KT 03/M03 A3038 RMK A01 T00331029  RH  064%=      5-min Rain = 0
KPD4 080935Z 18009KT 03/M03 A3038 RMK A01 T00331029  RH  064%=      5-min Rain = 0
KPD4 080936Z 19010KT 03/M03 A3038 RMK A01 T00331029  RH  064%=      5-min Rain = 0
KPD4 080937Z 19009KT 03/M03 A3038 RMK A01 T00331029  RH  064%=      5-min Rain = 0
KPD4 080938Z 19010KT 03/M03 A3038 RMK A01 T00331029  RH  064%=      5-min Rain = 0
KPD4 080939Z 18009KT 03/M03 A3038 RMK A01 T00331029  RH  064%=      5-min Rain = 0
KPD4 080940Z 19008KT 03/M03 A3038 RMK A01 T00331029  RH  064%=      5-min Rain = 0
KPD4 080941Z 18007KT 03/M03 A3038 RMK A01 T00331029  RH  064%=      5-min Rain = 0
KPD4 080942Z 18008KT 03/M03 A3038 RMK A01 T00331028  RH  064%=      5-min Rain = 0
KPD4 080943Z 18009KT 03/M03 A3037 RMK A01 T00331028  RH  064%=      5-min Rain = 0
KPD4 080944Z 18009KT 03/M03 A3037 RMK A01 T00331028  RH  064%=      5-min Rain = 0
KPD4 080945Z 19010KT 03/M03 A3037 RMK A01 T00331028  RH  064%=      5-min Rain = 0
KPD4 080946Z 18011KT 03/M03 A3037 RMK A01 T00331028  RH  064%=      5-min Rain = 0
KPD4 080947Z 18010KT 03/M03 A3037 RMK A01 T00331028  RH  064%=      5-min Rain = 0
KPD4 080948Z 19010KT 03/M03 A3037 RMK A01 T00331028  RH  064%=      5-min Rain = 0
KPD4 080949Z 19008KT 03/M03 A3037 RMK A01 T00331027  RH  064%=      5-min Rain = 0
KPD4 080950Z 19010KT 03/M03 A3037 RMK A01 T00331027  RH  065%=      5-min Rain = 0
KPD4 080951Z 19010KT 03/M03 A3037 RMK A01 T00331027  RH  065%=      5-min Rain = 0
KPD4 080952Z 19010KT 03/M03 A3037 RMK A01 T00331027  RH  065%=      5-min Rain = 0
KPD4 080953Z 19009KT 03/M03 A3037 RMK A01 T00331027  RH  065%=      5-min Rain = 0
KPD4 080954Z 19010KT 03/M03 A3037 RMK A01 T00331027  RH  065%=      5-min Rain = 0
KPD4 080955Z 19009KT 03/M03 A3037 RMK A01 T00331027  RH  065%=      5-min Rain = 0
KPD4 080956Z 19009KT 03/M03 A3037 RMK A01 T00331027  RH  065%=      5-min Rain = 0
KPD4 080957Z 19010KT 03/M03 A3037 RMK A01 T00331027  RH  065%=      5-min Rain = 0
KPD4 080958Z 19010KT 03/M03 A3037 RMK A01 T00331026  RH  065%=      5-min Rain = 0
KPD4 080959Z 19010KT 03/M03 A3037 RMK A01 T00331027  RH  065%=      5-min Rain = 0
KPD4 081000Z 19008KT 03/M03 A3037 RMK A01 T00331026  RH  065%=      5-min Rain = 0
KPD4 081001Z 19009KT 03/M03 A3037 RMK A01 T00331027  RH  065%=      5-min Rain = 0
KPD4 081002Z 19010KT 03/M03 A3037 RMK A01 T00331027  RH  065%=      5-min Rain = 0
KPD4 081003Z 19009KT 03/M03 A3037 RMK A01 T00331027  RH  065%=      5-min Rain = 0
KPD4 081004Z 19009KT 03/M03 A3037 RMK A01 T00331026  RH  065%=      5-min Rain = 0
KPD4 081005Z 19010KT 03/M03 A3037 RMK A01 T00331026  RH  065%=      5-min Rain = 0
KPD4 081006Z 19010KT 03/M03 A3037 RMK A01 T00331026  RH  065%=      5-min Rain = 0
KPD4 081007Z 19010KT 03/M03 A3037 RMK A01 T00331027  RH  065%=      5-min Rain = 0
KPD4 081008Z 19009KT 03/M03 A3037 RMK A01 T00331026  RH  065%=      5-min Rain = 0
KPD4 081009Z 18008KT 03/M03 A3037 RMK A01 T00331026  RH  065%=      5-min Rain = 0
KPD4 081010Z 18010KT 03/M03 A3037 RMK A01 T00331026  RH  065%=      5-min Rain = 0
KPD4 081011Z 18009KT 03/M03 A3037 RMK A01 T00331026  RH  065%=      5-min Rain = 0
KPD4 081012Z 18007KT 03/M03 A3037 RMK A01 T00331026  RH  065%=      5-min Rain = 0
KPD4 081013Z 18009KT 03/M03 A3037 RMK A01 T00331026  RH  065%=      5-min Rain = 0
KPD4 081014Z 19008KT 03/M03 A3037 RMK A01 T00331026  RH  065%=      5-min Rain = 0
KPD4 081015Z 19008KT 03/M03 A3037 RMK A01 T00331026  RH  065%=      5-min Rain = 0
KPD4 081016Z 18008KT 03/M03 A3037 RMK A01 T00331026  RH  065%=      5-min Rain = 0
KPD4 081017Z 18009KT 03/M03 A3037 RMK A01 T00331026  RH  065%=      5-min Rain = 0
KPD4 081018Z 18008KT 03/M03 A3037 RMK A01 T00331026  RH  065%=      5-min Rain = 0
KPD4 081019Z 18007KT 03/M03 A3037 RMK A01 T00331026  RH  065%=      5-min Rain = 0
KPD4 081020Z 19009KT 03/M03 A3037 RMK A01 T00331025  RH  065%=      5-min Rain = 0
KPD4 081021Z 18008KT 03/M03 A3037 RMK A01 T00331025  RH  065%=      5-min Rain = 0
KPD4 081022Z 18007KT 03/M03 A3037 RMK A01 T00331026  RH  065%=      5-min Rain = 0
KPD4 081023Z 18008KT 03/M03 A3037 RMK A01 T00331026  RH  065%=      5-min Rain = 0
KPD4 081024Z 19007KT 03/M03 A3037 RMK A01 T00331026  RH  065%=      5-min Rain = 0
KPD4 081025Z 18008KT 03/M03 A3037 RMK A01 T00331026  RH  065%=      5-min Rain = 0
KPD4 081026Z 19008KT 03/M03 A3037 RMK A01 T00331026  RH  065%=      5-min Rain = 0
KPD4 081027Z 19007KT 03/M03 A3037 RMK A01 T00331025  RH  065%=      5-min Rain = 0
KPD4 081028Z 19007KT 03/M03 A3037 RMK A01 T00341025  RH  066%=      5-min Rain = 0
KPD4 081029Z 19008KT 03/M03 A3037 RMK A01 T00341025  RH  065%=      5-min Rain = 0
KPD4 081030Z 19006KT 03/M03 A3037 RMK A01 T00331025  RH  066%=      5-min Rain = 0
KPD4 081031Z 19008KT 03/M03 A3037 RMK A01 T00341025  RH  066%=      5-min Rain = 0
KPD4 081032Z 19007KT 03/M03 A3037 RMK A01 T00331025  RH  066%=      5-min Rain = 0
KPD4 081033Z 19008KT 03/M03 A3037 RMK A01 T00341025  RH  066%=      5-min Rain = 0
KPD4 081034Z 19009KT 03/M03 A3037 RMK A01 T00341025  RH  066%=      5-min Rain = 0
KPD4 081035Z 19008KT 03/M03 A3037 RMK A01 T00341025  RH  066%=      5-min Rain = 0
KPD4 081036Z 19009KT 03/M03 A3037 RMK A01 T00341025  RH  066%=      5-min Rain = 0
KPD4 081037Z 19010KT 03/M02 A3037 RMK A01 T00341024  RH  066%=      5-min Rain = 0
KPD4 081038Z 19009KT 03/M02 A3037 RMK A01 T00341024  RH  066%=      5-min Rain = 0
KPD4 081039Z 19008KT 03/M02 A3037 RMK A01 T00341024  RH  066%=      5-min Rain = 0
KPD4 081040Z 19009KT 03/M02 A3037 RMK A01 T00341024  RH  066%=      5-min Rain = 0
KPD4 081041Z 18009KT 03/M02 A3037 RMK A01 T00341024  RH  066%=      5-min Rain = 0
KPD4 081042Z 18010KT 03/M02 A3036 RMK A01 T00341024  RH  066%=      5-min Rain = 0
KPD4 081043Z 19009KT 03/M02 A3036 RMK A01 T00341024  RH  066%=      5-min Rain = 0
KPD4 081044Z 19008KT 03/M02 A3036 RMK A01 T00341024  RH  066%=      5-min Rain = 0
KPD4 081045Z 18009KT 03/M02 A3036 RMK A01 T00331024  RH  066%=      5-min Rain = 0
KPD4 081046Z 19008KT 03/M02 A3036 RMK A01 T00341024  RH  066%=      5-min Rain = 0
KPD4 081047Z 19008KT 03/M02 A3036 RMK A01 T00341024  RH  066%=      5-min Rain = 0
KPD4 081048Z 18008KT 03/M02 A3036 RMK A01 T00331024  RH  066%=      5-min Rain = 0
KPD4 081049Z 19010KT 03/M02 A3036 RMK A01 T00341024  RH  066%=      5-min Rain = 0
KPD4 081050Z 19009KT 03/M02 A3036 RMK A01 T00341024  RH  066%=      5-min Rain = 0
KPD4 081051Z 18008KT 03/M02 A3036 RMK A01 T00341023  RH  066%=      5-min Rain = 0
KPD4 081052Z 19010KT 03/M02 A3036 RMK A01 T00341023  RH  066%=      5-min Rain = 0
KPD4 081053Z 19010KT 03/M02 A3036 RMK A01 T00341023  RH  066%=      5-min Rain = 0
KPD4 081054Z 19010KT 03/M02 A3036 RMK A01 T00331024  RH  066%=      5-min Rain = 0
KPD4 081055Z 19008KT 03/M02 A3036 RMK A01 T00341023  RH  066%=      5-min Rain = 0
KPD4 081056Z 19011KT 03/M02 A3036 RMK A01 T00341023  RH  066%=      5-min Rain = 0
KPD4 081057Z 18010KT 03/M02 A3036 RMK A01 T00341023  RH  066%=      5-min Rain = 0
KPD4 081058Z 19009KT 03/M02 A3036 RMK A01 T00341023  RH  066%=      5-min Rain = 0
KPD4 081059Z 18009KT 03/M02 A3036 RMK A01 T00331023  RH  067%=      5-min Rain = 0
KPD4 081100Z 19009KT 03/M02 A3036 RMK A01 T00331023  RH  067%=      5-min Rain = 0
KPD4 081101Z 19008KT 03/M02 A3036 RMK A01 T00331022  RH  067%=      5-min Rain = 0
KPD4 081102Z 18010KT 03/M02 A3036 RMK A01 T00341022  RH  067%=      5-min Rain = 0
KPD4 081103Z 18011KT 03/M02 A3036 RMK A01 T00331023  RH  067%=      5-min Rain = 0
KPD4 081104Z 19010KT 03/M02 A3036 RMK A01 T00331023  RH  067%=      5-min Rain = 0
KPD4 081105Z 19009KT 03/M02 A3036 RMK A01 T00341022  RH  067%=      5-min Rain = 0
KPD4 081106Z 19010KT 03/M02 A3036 RMK A01 T00341022  RH  067%=      5-min Rain = 0
KPD4 081107Z 18009KT 03/M02 A3035 RMK A01 T00331022  RH  067%=      5-min Rain = 0
KPD4 081108Z 19010KT 03/M02 A3035 RMK A01 T00331022  RH  067%=      5-min Rain = 0
KPD4 081109Z 19011KT 03/M02 A3035 RMK A01 T00331023  RH  067%=      5-min Rain = 0
KPD4 081110Z 19010KT 03/M02 A3035 RMK A01 T00331023  RH  067%=      5-min Rain = 0
KPD4 081111Z 19009KT 03/M02 A3036 RMK A01 T00331023  RH  067%=      5-min Rain = 0
KPD4 081112Z 19010KT 03/M02 A3036 RMK A01 T00331023  RH  067%=      5-min Rain = 0
KPD4 081113Z 19011KT 03/M02 A3036 RMK A01 T00331023  RH  067%=      5-min Rain = 0
KPD4 081114Z 19011KT 03/M02 A3035 RMK A01 T00331023  RH  067%=      5-min Rain = 0
KPD4 081115Z 19011KT 03/M02 A3036 RMK A01 T00331023  RH  067%=      5-min Rain = 0
KPD4 081116Z 18009KT 03/M02 A3036 RMK A01 T00331023  RH  067%=      5-min Rain = 0
KPD4 081117Z 19010KT 03/M02 A3036 RMK A01 T00331023  RH  066%=      5-min Rain = 0
KPD4 081118Z 19009KT 03/M02 A3036 RMK A01 T00331024  RH  066%=      5-min Rain = 0
KPD4 081119Z 19009KT 03/M02 A3036 RMK A01 T00331023  RH  066%=      5-min Rain = 0
KPD4 081120Z 19009KT 03/M02 A3036 RMK A01 T00331024  RH  066%=      5-min Rain = 0
KPD4 081121Z 19009KT 03/M02 A3036 RMK A01 T00331024  RH  066%=      5-min Rain = 0
KPD4 081122Z 19011KT 03/M02 A3036 RMK A01 T00331024  RH  066%=      5-min Rain = 0
KPD4 081123Z 19010KT 03/M02 A3035 RMK A01 T00331024  RH  066%=      5-min Rain = 0
KPD4 081124Z 19010KT 03/M02 A3035 RMK A01 T00341024  RH  066%=      5-min Rain = 0
KPD4 081125Z 19010KT 03/M02 A3035 RMK A01 T00341024  RH  066%=      5-min Rain = 0
KPD4 081126Z 19010KT 03/M03 A3035 RMK A01 T00341025  RH  066%=      5-min Rain = 0
KPD4 081127Z 19010KT 03/M03 A3035 RMK A01 T00341025  RH  065%=      5-min Rain = 0
KPD4 081128Z 19009KT 03/M03 A3035 RMK A01 T00341025  RH  065%=      5-min Rain = 0
KPD4 081129Z 19010KT 03/M03 A3036 RMK A01 T00341026  RH  065%=      5-min Rain = 0
KPD4 081130Z 19009KT 03/M03 A3036 RMK A01 T00341026  RH  065%=      5-min Rain = 0
KPD4 081131Z 19010KT 03/M03 A3036 RMK A01 T00341026  RH  065%=      5-min Rain = 0
KPD4 081132Z 19011KT 03/M03 A3036 RMK A01 T00341026  RH  065%=      5-min Rain = 0
KPD4 081133Z 19010KT 03/M03 A3036 RMK A01 T00341027  RH  064%=      5-min Rain = 0
KPD4 081134Z 19012KT 04/M03 A3035 RMK A01 T00351026  RH  064%=      5-min Rain = 0
KPD4 081135Z 19010KT 04/M03 A3036 RMK A01 T00351026  RH  064%=      5-min Rain = 0
KPD4 081136Z 19010KT 04/M03 A3036 RMK A01 T00351026  RH  064%=      5-min Rain = 0
KPD4 081137Z 19011KT 03/M03 A3035 RMK A01 T00341026  RH  064%=      5-min Rain = 0
KPD4 081138Z 19012KT 04/M03 A3035 RMK A01 T00351027  RH  064%=      5-min Rain = 0
KPD4 081139Z 19011KT 03/M03 A3035 RMK A01 T00341027  RH  064%=      5-min Rain = 0
KPD4 081140Z 19011KT 03/M03 A3035 RMK A01 T00341027  RH  064%=      5-min Rain = 0
KPD4 081141Z 19011KT 03/M03 A3035 RMK A01 T00341027  RH  064%=      5-min Rain = 0
KPD4 081142Z 19010KT 03/M03 A3035 RMK A01 T00341027  RH  064%=      5-min Rain = 0
KPD4 081143Z 19011KT 04/M03 A3035 RMK A01 T00351027  RH  064%=      5-min Rain = 0
KPD4 081144Z 19011KT 04/M03 A3035 RMK A01 T00351027  RH  064%=      5-min Rain = 0
KPD4 081145Z 19009KT 04/M03 A3035 RMK A01 T00351027  RH  064%=      5-min Rain = 0
KPD4 081146Z 19009KT 04/M03 A3035 RMK A01 T00351026  RH  064%=      5-min Rain = 0
KPD4 081147Z 19010KT 04/M03 A3035 RMK A01 T00351026  RH  064%=      5-min Rain = 0
KPD4 081148Z 18008KT 04/M03 A3035 RMK A01 T00351026  RH  064%=      5-min Rain = 0
KPD4 081149Z 18010KT 04/M03 A3035 RMK A01 T00351027  RH  064%=      5-min Rain = 0
KPD4 081150Z 19010KT 04/M03 A3035 RMK A01 T00351027  RH  064%=      5-min Rain = 0
KPD4 081151Z 18010KT 04/M03 A3035 RMK A01 T00351027  RH  064%=      5-min Rain = 0
KPD4 081152Z 19010KT 04/M03 A3035 RMK A01 T00351027  RH  064%=      5-min Rain = 0
KPD4 081153Z 18010KT 04/M03 A3035 RMK A01 T00351027  RH  064%=      5-min Rain = 0
KPD4 081154Z 19010KT 04/M03 A3035 RMK A01 T00351027  RH  064%=      5-min Rain = 0
KPD4 081155Z 19010KT 04/M03 A3035 RMK A01 T00351027  RH  064%=      5-min Rain = 0
KPD4 081156Z 19009KT 04/M03 A3035 RMK A01 T00351027  RH  064%=      5-min Rain = 0
KPD4 081157Z 19010KT 04/M03 A3035 RMK A01 T00351027  RH  064%=      5-min Rain = 0
KPD4 081158Z 19009KT 04/M03 A3035 RMK A01 T00351027  RH  064%=      5-min Rain = 0
KPD4 081159Z 19010KT 04/M03 A3035 RMK A01 T00351027  RH  064%=      5-min Rain = 0
KPD4 081200Z 19010KT 04/M03 A3035 RMK A01 T00351027  RH  064%=      5-min Rain = 0
KPD4 081201Z 18009KT 04/M03 A3035 RMK A01 T00351028  RH  063%=      5-min Rain = 0
KPD4 081202Z 19009KT 04/M03 A3035 RMK A01 T00351028  RH  063%=      5-min Rain = 0
KPD4 081203Z 19010KT 04/M03 A3035 RMK A01 T00351028  RH  063%=      5-min Rain = 0
KPD4 081204Z 19010KT 04/M03 A3035 RMK A01 T00351028  RH  063%=      5-min Rain = 0
KPD4 081205Z 19009KT 04/M03 A3036 RMK A01 T00351029  RH  063%=      5-min Rain = 0
KPD4 081206Z 20010KT 04/M03 A3036 RMK A01 T00351029  RH  063%=      5-min Rain = 0
KPD4 081207Z 19010KT 04/M03 A3035 RMK A01 T00351029  RH  063%=      5-min Rain = 0
KPD4 081208Z 19010KT 04/M03 A3035 RMK A01 T00361029  RH  063%=      5-min Rain = 0
KPD4 081209Z 18011KT 04/M03 A3035 RMK A01 T00351028  RH  063%=      5-min Rain = 0
KPD4 081210Z 19010KT 04/M03 A3035 RMK A01 T00351029  RH  063%=      5-min Rain = 0
KPD4 081211Z 19010KT 04/M03 A3035 RMK A01 T00351028  RH  063%=      5-min Rain = 0
KPD4 081212Z 19011KT 04/M03 A3035 RMK A01 T00351028  RH  063%=      5-min Rain = 0
KPD4 081213Z 19009KT 04/M03 A3035 RMK A01 T00351029  RH  063%=      5-min Rain = 0
KPD4 081214Z 20010KT 04/M03 A3035 RMK A01 T00351028  RH  063%=      5-min Rain = 0
KPD4 081215Z 19009KT 04/M03 A3035 RMK A01 T00351028  RH  063%=      5-min Rain = 0
KPD4 081216Z 19013KT 04/M03 A3035 RMK A01 T00361028  RH  063%=      5-min Rain = 0
KPD4 081217Z 19011KT 04/M03 A3035 RMK A01 T00351029  RH  063%=      5-min Rain = 0
KPD4 081218Z 19010KT 04/M03 A3035 RMK A01 T00361028  RH  063%=      5-min Rain = 0
KPD4 081219Z 19011KT 04/M03 A3035 RMK A01 T00351027  RH  064%=      5-min Rain = 0
KPD4 081220Z 18008KT 04/M03 A3035 RMK A01 T00351027  RH  064%=      5-min Rain = 0
KPD4 081221Z 19007KT 04/M03 A3035 RMK A01 T00351026  RH  064%=      5-min Rain = 0
KPD4 081222Z 19009KT 04/M03 A3035 RMK A01 T00351026  RH  064%=      5-min Rain = 0
KPD4 081223Z 19009KT 04/M03 A3035 RMK A01 T00351026  RH  064%=      5-min Rain = 0
KPD4 081224Z 19010KT 04/M03 A3035 RMK A01 T00351025  RH  065%=      5-min Rain = 0
KPD4 081225Z 18008KT 04/M03 A3035 RMK A01 T00351025  RH  065%=      5-min Rain = 0
KPD4 081226Z 18010KT 04/M02 A3035 RMK A01 T00351024  RH  065%=      5-min Rain = 0
KPD4 081227Z 18011KT 04/M02 A3035 RMK A01 T00351024  RH  065%=      5-min Rain = 0
KPD4 081228Z 19010KT 04/M02 A3035 RMK A01 T00351024  RH  065%=      5-min Rain = 0
KPD4 081229Z 18011KT 04/M02 A3035 RMK A01 T00351024  RH  065%=      5-min Rain = 0
KPD4 081230Z 18011KT 04/M03 A3035 RMK A01 T00351025  RH  065%=      5-min Rain = 0
KPD4 081231Z 18011KT 04/M03 A3035 RMK A01 T00361025  RH  065%=      5-min Rain = 0
KPD4 081232Z 19010KT 04/M03 A3035 RMK A01 T00351025  RH  065%=      5-min Rain = 0
KPD4 081233Z 19011KT 04/M03 A3035 RMK A01 T00351025  RH  065%=      5-min Rain = 0
KPD4 081234Z 19010KT 04/M03 A3035 RMK A01 T00351025  RH  065%=      5-min Rain = 0
KPD4 081235Z 18008KT 04/M03 A3035 RMK A01 T00351025  RH  065%=      5-min Rain = 0
KPD4 081236Z 19007KT 04/M02 A3035 RMK A01 T00351024  RH  065%=      5-min Rain = 0
KPD4 081237Z 18009KT 04/M03 A3035 RMK A01 T00351025  RH  065%=      5-min Rain = 0
KPD4 081238Z 19009KT 04/M03 A3036 RMK A01 T00361025  RH  065%=      5-min Rain = 0
KPD4 081239Z 19010KT 04/M03 A3036 RMK A01 T00351025  RH  064%=      5-min Rain = 0
KPD4 081240Z 19011KT 04/M03 A3035 RMK A01 T00351026  RH  064%=      5-min Rain = 0
KPD4 081241Z 18011KT 04/M03 A3035 RMK A01 T00351026  RH  064%=      5-min Rain = 0
KPD4 081242Z 19011KT 04/M03 A3035 RMK A01 T00351027  RH  064%=      5-min Rain = 0
KPD4 081243Z 19011KT 04/M03 A3035 RMK A01 T00351026  RH  064%=      5-min Rain = 0
KPD4 081244Z 19012KT 04/M03 A3035 RMK A01 T00351027  RH  064%=      5-min Rain = 0
KPD4 081245Z 18011KT 04/M03 A3035 RMK A01 T00351028  RH  063%=      5-min Rain = 0
KPD4 081246Z 18012KT 04/M03 A3036 RMK A01 T00351028  RH  063%=      5-min Rain = 0
KPD4 081247Z 19011KT 04/M03 A3036 RMK A01 T00351028  RH  063%=      5-min Rain = 0
KPD4 081248Z 18011KT 04/M03 A3036 RMK A01 T00351028  RH  063%=      5-min Rain = 0
KPD4 081249Z 19009KT 04/M03 A3036 RMK A01 T00351029  RH  063%=      5-min Rain = 0
KPD4 081250Z 18009KT 04/M03 A3036 RMK A01 T00351029  RH  063%=      5-min Rain = 0
KPD4 081251Z 18009KT 04/M03 A3036 RMK A01 T00351029  RH  063%=      5-min Rain = 0
KPD4 081252Z 19012KT 04/M03 A3036 RMK A01 T00351029  RH  063%=      5-min Rain = 0
KPD4 081253Z 19011KT 04/M03 A3036 RMK A01 T00351030  RH  062%=      5-min Rain = 0
KPD4 081254Z 18011KT 04/M03 A3035 RMK A01 T00361029  RH  063%=      5-min Rain = 0
KPD4 081255Z 19010KT 04/M03 A3035 RMK A01 T00361029  RH  062%=      5-min Rain = 0
KPD4 081256Z 19012KT 04/M03 A3035 RMK A01 T00361029  RH  062%=      5-min Rain = 0
KPD4 081257Z 18012KT 04/M03 A3035 RMK A01 T00361030  RH  062%=      5-min Rain = 0
KPD4 081258Z 18013KT 04/M03 A3035 RMK A01 T00361030  RH  062%=      5-min Rain = 0
KPD4 081259Z 19015KT 04/M03 A3034 RMK A01 T00361030  RH  062%=      5-min Rain = 0
KPD4 081300Z 19013KT 04/M03 A3034 RMK A01 T00361031  RH  062%=      5-min Rain = 0
KPD4 081301Z 18012KT 04/M03 A3034 RMK A01 T00361031  RH  062%=      5-min Rain = 0
KPD4 081302Z 18012KT 04/M03 A3034 RMK A01 T00361031  RH  062%=      5-min Rain = 0
KPD4 081303Z 19011KT 04/M03 A3034 RMK A01 T00361031  RH  062%=      5-min Rain = 0
KPD4 081304Z 19014KT 04/M03 A3034 RMK A01 T00361031  RH  062%=      5-min Rain = 0
KPD4 081305Z 18013KT 04/M03 A3034 RMK A01 T00361032  RH  061%=      5-min Rain = 0
KPD4 081306Z 19013KT 04/M03 A3034 RMK A01 T00361032  RH  061%=      5-min Rain = 0
KPD4 081307Z 19013KT 04/M03 A3034 RMK A01 T00361032  RH  061%=      5-min Rain = 0
KPD4 081308Z 19016KT 04/M03 A3034 RMK A01 T00361032  RH  061%=      5-min Rain = 0
KPD4 081309Z 19015KT 04/M03 A3034 RMK A01 T00361033  RH  061%=      5-min Rain = 0
KPD4 081310Z 19015KT 04/M03 A3034 RMK A01 T00361033  RH  061%=      5-min Rain = 0
KPD4 081311Z 19015KT 04/M03 A3034 RMK A01 T00361033  RH  061%=      5-min Rain = 0
KPD4 081312Z 19014KT 04/M03 A3034 RMK A01 T00361033  RH  061%=      5-min Rain = 0
KPD4 081313Z 19012KT 04/M03 A3034 RMK A01 T00361032  RH  061%=      5-min Rain = 0
KPD4 081314Z 19011KT 04/M03 A3034 RMK A01 T00361032  RH  061%=      5-min Rain = 0
KPD4 081315Z 19013KT 04/M03 A3034 RMK A01 T00361032  RH  061%=      5-min Rain = 0
KPD4 081316Z 19013KT 04/M03 A3034 RMK A01 T00361032  RH  061%=      5-min Rain = 0
KPD4 081317Z 19015KT 04/M03 A3034 RMK A01 T00361032  RH  061%=      5-min Rain = 0
KPD4 081318Z 18015KT 04/M03 A3034 RMK A01 T00361032  RH  061%=      5-min Rain = 0
KPD4 081319Z 18013KT 04/M03 A3034 RMK A01 T00361032  RH  061%=      5-min Rain = 0
KPD4 081320Z 19013KT 04/M03 A3034 RMK A01 T00361032  RH  061%=      5-min Rain = 0
KPD4 081321Z 19011KT 04/M03 A3034 RMK A01 T00361031  RH  061%=      5-min Rain = 0
KPD4 081322Z 19012KT 04/M03 A3034 RMK A01 T00361031  RH  061%=      5-min Rain = 0
KPD4 081323Z 19010KT 04/M03 A3035 RMK A01 T00361031  RH  062%=      5-min Rain = 0
KPD4 081324Z 19011KT 04/M03 A3035 RMK A01 T00361031  RH  062%=      5-min Rain = 0
KPD4 081325Z 20011KT 04/M03 A3035 RMK A01 T00361031  RH  062%=      5-min Rain = 0
KPD4 081326Z 19011KT 04/M03 A3035 RMK A01 T00371030  RH  062%=      5-min Rain = 0
KPD4 081327Z 19008KT 04/M03 A3035 RMK A01 T00361030  RH  062%=      5-min Rain = 0
KPD4 081328Z 19012KT 04/M03 A3035 RMK A01 T00361030  RH  062%=      5-min Rain = 0
KPD4 081329Z 19010KT 04/M03 A3035 RMK A01 T00361030  RH  062%=      5-min Rain = 0
KPD4 081330Z 19011KT 04/M03 A3035 RMK A01 T00361030  RH  062%=      5-min Rain = 0
KPD4 081331Z 20008KT 04/M03 A3035 RMK A01 T00361030  RH  062%=      5-min Rain = 0
KPD4 081332Z 20009KT 04/M03 A3035 RMK A01 T00361030  RH  062%=      5-min Rain = 0
KPD4 081333Z 20009KT 04/M03 A3035 RMK A01 T00371030  RH  062%=      5-min Rain = 0
KPD4 081334Z 20009KT 04/M03 A3035 RMK A01 T00371030  RH  062%=      5-min Rain = 0
KPD4 081335Z 19008KT 04/M03 A3035 RMK A01 T00371030  RH  062%=      5-min Rain = 0
KPD4 081336Z 20011KT 04/M03 A3035 RMK A01 T00371029  RH  062%=      5-min Rain = 0
KPD4 081337Z 20011KT 04/M03 A3035 RMK A01 T00371030  RH  062%=      5-min Rain = 0
KPD4 081338Z 20010KT 04/M03 A3036 RMK A01 T00371030  RH  062%=      5-min Rain = 0
KPD4 081339Z 20010KT 04/M03 A3036 RMK A01 T00371029  RH  062%=      5-min Rain = 0
KPD4 081340Z 19009KT 04/M03 A3036 RMK A01 T00371029  RH  062%=      5-min Rain = 0
KPD4 081341Z 19010KT 04/M03 A3036 RMK A01 T00371029  RH  062%=      5-min Rain = 0
KPD4 081342Z 19009KT 04/M03 A3036 RMK A01 T00371029  RH  062%=      5-min Rain = 0
KPD4 081343Z 19009KT 04/M03 A3036 RMK A01 T00371029  RH  062%=      5-min Rain = 0
KPD4 081344Z 19010KT 04/M03 A3036 RMK A01 T00371029  RH  062%=      5-min Rain = 0
KPD4 081345Z 19011KT 04/M03 A3035 RMK A01 T00381028  RH  062%=      5-min Rain = 0
KPD4 081346Z 19010KT 04/M03 A3035 RMK A01 T00371029  RH  062%=      5-min Rain = 0
KPD4 081347Z 19012KT 04/M03 A3035 RMK A01 T00381029  RH  062%=      5-min Rain = 0
KPD4 081348Z 19012KT 04/M03 A3035 RMK A01 T00381029  RH  062%=      5-min Rain = 0
KPD4 081349Z 19012KT 04/M03 A3035 RMK A01 T00381029  RH  062%=      5-min Rain = 0
KPD4 081350Z 20012KT 04/M03 A3036 RMK A01 T00381028  RH  062%=      5-min Rain = 0
KPD4 081351Z 19011KT 04/M03 A3036 RMK A01 T00381028  RH  062%=      5-min Rain = 0
KPD4 081352Z 19010KT 04/M03 A3035 RMK A01 T00381028  RH  062%=      5-min Rain = 0
KPD4 081353Z 19011KT 04/M03 A3035 RMK A01 T00381028  RH  062%=      5-min Rain = 0
KPD4 081354Z 19011KT 04/M03 A3035 RMK A01 T00381028  RH  062%=      5-min Rain = 0
KPD4 081355Z 19010KT 04/M03 A3035 RMK A01 T00381028  RH  062%=      5-min Rain = 0
KPD4 081356Z 19011KT 04/M03 A3035 RMK A01 T00381027  RH  062%=      5-min Rain = 0
KPD4 081357Z 19012KT 04/M03 A3035 RMK A01 T00381028  RH  062%=      5-min Rain = 0
KPD4 081358Z 19010KT 04/M03 A3035 RMK A01 T00391027  RH  062%=      5-min Rain = 0
KPD4 081359Z 18013KT 04/M03 A3035 RMK A01 T00391027  RH  062%=      5-min Rain = 0
KPD4 081400Z 18014KT 04/M03 A3035 RMK A01 T00391027  RH  062%=      5-min Rain = 0
KPD4 081401Z 19013KT 04/M03 A3035 RMK A01 T00391027  RH  062%=      5-min Rain = 0
KPD4 081402Z 19013KT 04/M03 A3035 RMK A01 T00391027  RH  062%=      5-min Rain = 0
KPD4 081403Z 19011KT 04/M03 A3035 RMK A01 T00391026  RH  062%=      5-min Rain = 0
KPD4 081404Z 18014KT 04/M03 A3035 RMK A01 T00391026  RH  062%=      5-min Rain = 0
KPD4 081405Z 18013KT 04/M03 A3035 RMK A01 T00401026  RH  062%=      5-min Rain = 0
KPD4 081406Z 19015KT 04/M03 A3034 RMK A01 T00401026  RH  062%=      5-min Rain = 0
KPD4 081407Z 18013KT 04/M03 A3034 RMK A01 T00401026  RH  062%=      5-min Rain = 0
KPD4 081408Z 19011KT 04/M03 A3034 RMK A01 T00401025  RH  062%=      5-min Rain = 0
KPD4 081409Z 18010KT 04/M03 A3034 RMK A01 T00401025  RH  062%=      5-min Rain = 0
KPD4 081410Z 18013KT 04/M03 A3034 RMK A01 T00411025  RH  062%=      5-min Rain = 0
KPD4 081411Z 19012KT 04/M03 A3034 RMK A01 T00411025  RH  062%=      5-min Rain = 0
KPD4 081412Z 19012KT 04/M03 A3034 RMK A01 T00411025  RH  062%=      5-min Rain = 0
KPD4 081413Z 18012KT 04/M02 A3035 RMK A01 T00411024  RH  062%=      5-min Rain = 0
KPD4 081414Z 19011KT 04/M02 A3035 RMK A01 T00421024  RH  062%=      5-min Rain = 0
KPD4 081415Z 18011KT 04/M02 A3035 RMK A01 T00421024  RH  062%=      5-min Rain = 0
KPD4 081416Z 19012KT 04/M02 A3034 RMK A01 T00421023  RH  062%=      5-min Rain = 0
KPD4 081417Z 19011KT 04/M02 A3035 RMK A01 T00421023  RH  062%=      5-min Rain = 0
KPD4 081418Z 19012KT 04/M02 A3035 RMK A01 T00421023  RH  063%=      5-min Rain = 0
KPD4 081419Z 19011KT 04/M02 A3035 RMK A01 T00431022  RH  063%=      5-min Rain = 0
KPD4 081420Z 19012KT 04/M02 A3035 RMK A01 T00431022  RH  063%=      5-min Rain = 0
KPD4 081421Z 19013KT 04/M02 A3035 RMK A01 T00441021  RH  063%=      5-min Rain = 0
KPD4 081422Z 19014KT 04/M02 A3034 RMK A01 T00441021  RH  063%=      5-min Rain = 0
KPD4 081423Z 19013KT 04/M02 A3034 RMK A01 T00441020  RH  063%=      5-min Rain = 0
KPD4 081424Z 19013KT 04/M02 A3034 RMK A01 T00441020  RH  063%=      5-min Rain = 0
KPD4 081425Z 19015KT 04/M02 A3034 RMK A01 T00441019  RH  064%=      5-min Rain = 0
KPD4 081426Z 19013KT 04/M02 A3034 RMK A01 T00441019  RH  064%=      5-min Rain = 0
KPD4 081427Z 19014KT 04/M02 A3034 RMK A01 T00441019  RH  064%=      5-min Rain = 0
KPD4 081428Z 19012KT 05/M02 A3034 RMK A01 T00451018  RH  064%=      5-min Rain = 0
KPD4 081429Z 19013KT 05/M02 A3034 RMK A01 T00451017  RH  064%=      5-min Rain = 0
KPD4 081430Z 19012KT 05/M02 A3034 RMK A01 T00461017  RH  064%=      5-min Rain = 0
KPD4 081431Z 19013KT 05/M02 A3034 RMK A01 T00451017  RH  064%=      5-min Rain = 0
KPD4 081432Z 19012KT 05/M02 A3034 RMK A01 T00461017  RH  064%=      5-min Rain = 0
KPD4 081433Z 19014KT 05/M02 A3034 RMK A01 T00461017  RH  064%=      5-min Rain = 0
KPD4 081434Z 19012KT 05/M02 A3034 RMK A01 T00461016  RH  064%=      5-min Rain = 0
KPD4 081435Z 19012KT 05/M02 A3034 RMK A01 T00471015  RH  064%=      5-min Rain = 0
KPD4 081436Z 19011KT 05/M02 A3034 RMK A01 T00471016  RH  063%=      5-min Rain = 0
KPD4 081437Z 18012KT 05/M02 A3034 RMK A01 T00481016  RH  063%=      5-min Rain = 0
KPD4 081438Z 19012KT 05/M02 A3034 RMK A01 T00481016  RH  063%=      5-min Rain = 0
KPD4 081439Z 19012KT 05/M02 A3034 RMK A01 T00481015  RH  064%=      5-min Rain = 0
KPD4 081440Z 19012KT 05/M01 A3034 RMK A01 T00491014  RH  064%=      5-min Rain = 0
KPD4 081441Z 18014KT 05/M01 A3034 RMK A01 T00501014  RH  063%=      5-min Rain = 0
KPD4 081442Z 18014KT 05/M02 A3034 RMK A01 T00491015  RH  063%=      5-min Rain = 0
KPD4 081443Z 19012KT 05/M02 A3034 RMK A01 T00491015  RH  063%=      5-min Rain = 0
KPD4 081444Z 19012KT 05/M01 A3034 RMK A01 T00491014  RH  063%=      5-min Rain = 0
KPD4 081445Z 19014KT 05/M01 A3034 RMK A01 T00501014  RH  064%=      5-min Rain = 0
KPD4 081446Z 19013KT 05/M01 A3034 RMK A01 T00501013  RH  064%=      5-min Rain = 0
KPD4 081447Z 19010KT 05/M01 A3034 RMK A01 T00511013  RH  064%=      5-min Rain = 0
KPD4 081448Z 18014KT 05/M01 A3034 RMK A01 T00521012  RH  063%=      5-min Rain = 0
KPD4 081449Z 19015KT 05/M01 A3034 RMK A01 T00521012  RH  063%=      5-min Rain = 0
KPD4 081450Z 19012KT 05/M01 A3034 RMK A01 T00521012  RH  064%=      5-min Rain = 0
KPD4 081451Z 19014KT 05/M01 A3034 RMK A01 T00521011  RH  064%=      5-min Rain = 0
KPD4 081452Z 18013KT 05/M01 A3034 RMK A01 T00521011  RH  064%=      5-min Rain = 0
KPD4 081453Z 19009KT 05/M01 A3034 RMK A01 T00521012  RH  063%=      5-min Rain = 0
KPD4 081454Z 18012KT 05/M01 A3035 RMK A01 T00531011  RH  063%=      5-min Rain = 0
KPD4 081455Z 18010KT 05/M01 A3034 RMK A01 T00541011  RH  063%=      5-min Rain = 0
KPD4 081456Z 19011KT 05/M01 A3035 RMK A01 T00541010  RH  063%=      5-min Rain = 0
KPD4 081457Z 20010KT 06/M01 A3035 RMK A01 T00551010  RH  063%=      5-min Rain = 0
KPD4 081458Z 20011KT 06/M01 A3035 RMK A01 T00551009  RH  063%=      5-min Rain = 0
KPD4 081459Z 19015KT 06/M01 A3035 RMK A01 T00551008  RH  064%=      5-min Rain = 0
KPD4 081500Z 20014KT 06/M01 A3035 RMK A01 T00551008  RH  064%=      5-min Rain = 0
KPD4 081501Z 20010KT 06/M01 A3035 RMK A01 T00551008  RH  064%=      5-min Rain = 0
KPD4 081502Z 20013KT 06/M01 A3035 RMK A01 T00561007  RH  064%=      5-min Rain = 0
KPD4 081503Z 20015KT 06/M01 A3035 RMK A01 T00571007  RH  064%=      5-min Rain = 0
KPD4 081504Z 19014KT 06/M01 A3034 RMK A01 T00561007  RH  064%=      5-min Rain = 0
KPD4 081505Z 20012KT 06/M01 A3034 RMK A01 T00551007  RH  064%=      5-min Rain = 0
KPD4 081506Z 19012KT 06/M01 A3034 RMK A01 T00551006  RH  064%=      5-min Rain = 0
KPD4 081507Z 20015KT 06/M01 A3034 RMK A01 T00561006  RH  064%=      5-min Rain = 0
KPD4 081508Z 19015KT 06/M01 A3034 RMK A01 T00561005  RH  065%=      5-min Rain = 0
KPD4 081509Z 21015KT 06/M00 A3034 RMK A01 T00561004  RH  065%=      5-min Rain = 0
KPD4 081510Z 20014KT 06/M01 A3034 RMK A01 T00561005  RH  065%=      5-min Rain = 0
KPD4 081511Z 19012KT 06/M01 A3034 RMK A01 T00561005  RH  065%=      5-min Rain = 0
KPD4 081512Z 19012KT 06/M00 A3034 RMK A01 T00581004  RH  065%=      5-min Rain = 0
KPD4 081513Z 20012KT 06/M00 A3034 RMK A01 T00591003  RH  064%=      5-min Rain = 0
KPD4 081514Z 19010KT 06/M00 A3034 RMK A01 T00591003  RH  064%=      5-min Rain = 0
KPD4 081515Z 20011KT 06/M00 A3034 RMK A01 T00611002  RH  064%=      5-min Rain = 0
KPD4 081516Z 19013KT 06/M00 A3034 RMK A01 T00611003  RH  064%=      5-min Rain = 0
KPD4 081517Z 19014KT 06/M00 A3034 RMK A01 T00601003  RH  064%=      5-min Rain = 0
KPD4 081518Z 19016KT 06/M00 A3034 RMK A01 T00591004  RH  064%=      5-min Rain = 0
KPD4 081519Z 19015KT 06/M00 A3034 RMK A01 T00571004  RH  065%=      5-min Rain = 0
KPD4 081520Z 19015KT 06/M00 A3034 RMK A01 T00571003  RH  065%=      5-min Rain = 0
KPD4 081521Z 19014KT 06/M00 A3034 RMK A01 T00571002  RH  065%=      5-min Rain = 0
KPD4 081522Z 19015KT 06/M00 A3034 RMK A01 T00581002  RH  065%=      5-min Rain = 0
KPD4 081523Z 19014KT 06/M00 A3034 RMK A01 T00581002  RH  065%=      5-min Rain = 0
KPD4 081524Z 19015KT 06/M00 A3034 RMK A01 T00581002  RH  065%=      5-min Rain = 0
KPD4 081525Z 19014KT 06/M00 A3034 RMK A01 T00591001  RH  065%=      5-min Rain = 0
KPD4 081526Z 20015KT 06/M00 A3034 RMK A01 T00591001  RH  065%=      5-min Rain = 0
KPD4 081527Z 21015KT 06/00 A3034 RMK A01 T006000-0  RH  065%=      5-min Rain = 0
KPD4 081528Z 20014KT 06/00 A3034 RMK A01 T005900-0  RH  065%=      5-min Rain = 0
KPD4 081529Z 20013KT 06/00 A3034 RMK A01 T00600000  RH  066%=      5-min Rain = 0
KPD4 081530Z 20016KT 06/00 A3034 RMK A01 T00600001  RH  065%=      5-min Rain = 0
KPD4 081531Z 20016KT 06/00 A3034 RMK A01 T00600001  RH  066%=      5-min Rain = 0
KPD4 081532Z 20015KT 06/00 A3034 RMK A01 T00600001  RH  066%=      5-min Rain = 0
KPD4 081533Z 20015KT 06/00 A3034 RMK A01 T00600001  RH  066%=      5-min Rain = 0
KPD4 081534Z 21014KT 06/00 A3034 RMK A01 T00600001  RH  066%=      5-min Rain = 0
KPD4 081535Z 21012G17KT 06/00 A3034 RMK A01 T00620002  RH  066%=      5-min Rain = 0
KPD4 081536Z 20015KT 06/00 A3034 RMK A01 T00640004  RH  065%=      5-min Rain = 0
KPD4 081537Z 21016KT 07/00 A3034 RMK A01 T00650004  RH  065%=      5-min Rain = 0
KPD4 081538Z 21014KT 07/00 A3034 RMK A01 T00670004  RH  064%=      5-min Rain = 0
KPD4 081539Z 21016KT 07/00 A3034 RMK A01 T00670003  RH  064%=      5-min Rain = 0
KPD4 081540Z 21012KT 07/00 A3034 RMK A01 T00670003  RH  064%=      5-min Rain = 0
KPD4 081541Z 21012KT 07/00 A3034 RMK A01 T00680004  RH  064%=      5-min Rain = 0
KPD4 081542Z 20015KT 07/01 A3034 RMK A01 T00710006  RH  063%=      5-min Rain = 0
KPD4 081543Z 20014KT 07/01 A3034 RMK A01 T00720005  RH  063%=      5-min Rain = 0
KPD4 081544Z 21014KT 07/01 A3034 RMK A01 T00710005  RH  063%=      5-min Rain = 0
KPD4 081545Z 21012KT 07/01 A3034 RMK A01 T00740009  RH  063%=      5-min Rain = 0
KPD4 081546Z 20012KT 08/01 A3034 RMK A01 T00770009  RH  062%=      5-min Rain = 0
KPD4 081547Z 20015KT 08/01 A3034 RMK A01 T00750005  RH  061%=      5-min Rain = 0
KPD4 081548Z 20014KT 07/00 A3034 RMK A01 T00710004  RH  062%=      5-min Rain = 0
KPD4 081549Z 20014KT 07/01 A3034 RMK A01 T00700005  RH  064%=      5-min Rain = 0
KPD4 081550Z 20014KT 07/01 A3034 RMK A01 T00700007  RH  064%=      5-min Rain = 0
KPD4 081551Z 20015KT 07/01 A3034 RMK A01 T00700007  RH  064%=      5-min Rain = 0
KPD4 081552Z 20016KT 07/01 A3034 RMK A01 T00710009  RH  065%=      5-min Rain = 0
KPD4 081553Z 20014KT 07/01 A3034 RMK A01 T00730011  RH  065%=      5-min Rain = 0
KPD4 081554Z 20017KT 07/01 A3034 RMK A01 T00740011  RH  064%=      5-min Rain = 0
KPD4 081555Z 20014KT 08/01 A3034 RMK A01 T00750011  RH  064%=      5-min Rain = 0
KPD4 081556Z 21016KT 08/01 A3034 RMK A01 T00770012  RH  063%=      5-min Rain = 0
KPD4 081557Z 21017KT 08/01 A3034 RMK A01 T00790012  RH  063%=      5-min Rain = 0
KPD4 081558Z 22014KT 08/01 A3034 RMK A01 T00780012  RH  063%=      5-min Rain = 0
KPD4 081559Z 21014KT 08/01 A3034 RMK A01 T00770011  RH  063%=      5-min Rain = 0
KPD4 081600Z 21011KT 08/01 A3034 RMK A01 T00780014  RH  064%=      5-min Rain = 0
KPD4 081601Z 22014KT 08/02 A3034 RMK A01 T00820016  RH  063%=      5-min Rain = 0
KPD4 081602Z 22013KT 08/01 A3034 RMK A01 T00820013  RH  062%=      5-min Rain = 0
KPD4 081603Z 21011KT 08/01 A3034 RMK A01 T00800013  RH  063%=      5-min Rain = 0
KPD4 081604Z 20012KT 08/02 A3034 RMK A01 T00800015  RH  063%=      5-min Rain = 0
KPD4 081605Z 21014KT 08/02 A3034 RMK A01 T00830016  RH  063%=      5-min Rain = 0
KPD4 081606Z 21013KT 08/02 A3034 RMK A01 T00840016  RH  062%=      5-min Rain = 0
KPD4 081607Z 20014KT 08/02 A3034 RMK A01 T00840016  RH  062%=      5-min Rain = 0
KPD4 081608Z 22014KT 08/02 A3034 RMK A01 T00840016  RH  062%=      5-min Rain = 0
KPD4 081609Z 22012KT 09/02 A3034 RMK A01 T00850017  RH  063%=      5-min Rain = 0
KPD4 081610Z 22013KT 09/02 A3034 RMK A01 T00880019  RH  062%=      5-min Rain = 0
KPD4 081611Z 22013KT 09/02 A3034 RMK A01 T00890017  RH  061%=      5-min Rain = 0
KPD4 081612Z 22011KT 09/02 A3034 RMK A01 T00870018  RH  062%=      5-min Rain = 0
KPD4 081613Z 21011KT 09/02 A3034 RMK A01 T00910021  RH  062%=      5-min Rain = 0
KPD4 081614Z 20012KT 09/02 A3034 RMK A01 T00930020  RH  060%=      5-min Rain = 0
KPD4 081615Z 22015KT 09/02 A3034 RMK A01 T00930020  RH  060%=      5-min Rain = 0
KPD4 081616Z 21014KT 09/02 A3034 RMK A01 T00920020  RH  061%=      5-min Rain = 0
KPD4 081617Z 21015KT 09/02 A3034 RMK A01 T00920020  RH  061%=      5-min Rain = 0
KPD4 081618Z 22013KT 09/02 A3034 RMK A01 T00900021  RH  062%=      5-min Rain = 0
KPD4 081619Z 21013KT 09/02 A3034 RMK A01 T00920021  RH  061%=      5-min Rain = 0
KPD4 081620Z 23014KT 09/02 A3034 RMK A01 T00920021  RH  061%=      5-min Rain = 0
KPD4 081621Z 21013KT 09/02 A3034 RMK A01 T00920021  RH  061%=      5-min Rain = 0
KPD4 081622Z 21011KT 09/02 A3034 RMK A01 T00910020  RH  061%=      5-min Rain = 0
KPD4 081623Z 21012KT 09/02 A3034 RMK A01 T00930023  RH  061%=      5-min Rain = 0
KPD4 081624Z 21015KT 10/02 A3034 RMK A01 T00950022  RH  061%=      5-min Rain = 0
KPD4 081625Z 20013KT 09/02 A3034 RMK A01 T00920020  RH  061%=      5-min Rain = 0
KPD4 081626Z 22013KT 09/02 A3033 RMK A01 T00910022  RH  062%=      5-min Rain = 0
KPD4 081627Z 20014KT 09/02 A3033 RMK A01 T00920022  RH  062%=      5-min Rain = 0
KPD4 081628Z 20014KT 09/02 A3033 RMK A01 T00910022  RH  062%=      5-min Rain = 0
KPD4 081629Z 20013KT 09/02 A3033 RMK A01 T00890022  RH  062%=      5-min Rain = 0
KPD4 081630Z 20014KT 09/02 A3033 RMK A01 T00890023  RH  063%=      5-min Rain = 0
KPD4 081631Z 20015KT 09/02 A3033 RMK A01 T00900024  RH  063%=      5-min Rain = 0
KPD4 081632Z 22014KT 09/03 A3033 RMK A01 T00920025  RH  063%=      5-min Rain = 0
KPD4 081633Z 23013KT 09/03 A3033 RMK A01 T00940025  RH  062%=      5-min Rain = 0
KPD4 081634Z 20013KT 10/03 A3033 RMK A01 T00950025  RH  062%=      5-min Rain = 0
KPD4 081635Z 21012KT 09/03 A3033 RMK A01 T00940025  RH  062%=      5-min Rain = 0
KPD4 081636Z 21012KT 09/03 A3033 RMK A01 T00940025  RH  062%=      5-min Rain = 0
KPD4 081637Z 21014G19KT 10/03 A3033 RMK A01 T00960027  RH  062%=      5-min Rain = 0
KPD4 081638Z 21017G22KT 10/03 A3033 RMK A01 T00970026  RH  061%=      5-min Rain = 0
KPD4 081639Z 21014KT 10/03 A3033 RMK A01 T00950025  RH  062%=      5-min Rain = 0
KPD4 081640Z 22015KT 09/03 A3033 RMK A01 T00940026  RH  062%=      5-min Rain = 0
KPD4 081641Z 22015KT 09/03 A3033 RMK A01 T00930025  RH  062%=      5-min Rain = 0
KPD4 081642Z 20013KT 09/02 A3033 RMK A01 T00910024  RH  063%=      5-min Rain = 0
KPD4 081643Z 20016KT 09/03 A3033 RMK A01 T00910026  RH  063%=      5-min Rain = 0
KPD4 081644Z 20015KT 09/03 A3033 RMK A01 T00910025  RH  063%=      5-min Rain = 0
KPD4 081645Z 19016KT 09/03 A3033 RMK A01 T00900026  RH  064%=      5-min Rain = 0
KPD4 081646Z 20017KT 09/03 A3033 RMK A01 T00910027  RH  064%=      5-min Rain = 0
KPD4 081647Z 20018KT 09/03 A3033 RMK A01 T00920027  RH  064%=      5-min Rain = 0
KPD4 081648Z 20015KT 09/03 A3033 RMK A01 T00920027  RH  064%=      5-min Rain = 0
KPD4 081649Z 21014KT 09/03 A3033 RMK A01 T00920027  RH  064%=      5-min Rain = 0
KPD4 081650Z 22015KT 09/03 A3033 RMK A01 T00920028  RH  064%=      5-min Rain = 0
KPD4 081651Z 22016KT 09/03 A3033 RMK A01 T00940028  RH  063%=      5-min Rain = 0
KPD4 081652Z 22015KT 10/03 A3033 RMK A01 T00950028  RH  063%=      5-min Rain = 0
KPD4 081653Z 22015KT 10/03 A3033 RMK A01 T00950028  RH  063%=      5-min Rain = 0
KPD4 081654Z 22014KT 10/03 A3033 RMK A01 T00950028  RH  063%=      5-min Rain = 0
KPD4 081655Z 21014KT 10/03 A3033 RMK A01 T00960029  RH  063%=      5-min Rain = 0
KPD4 081656Z 20011KT 10/03 A3033 RMK A01 T00970028  RH  062%=      5-min Rain = 0
KPD4 081657Z 21012KT 10/03 A3033 RMK A01 T00960028  RH  063%=      5-min Rain = 0
KPD4 081658Z 23013KT 10/03 A3033 RMK A01 T00970030  RH  063%=      5-min Rain = 0
KPD4 081659Z 22015KT 10/03 A3033 RMK A01 T00990030  RH  062%=      5-min Rain = 0
KPD4 081700Z 23015KT 10/03 A3033 RMK A01 T00980029  RH  062%=      5-min Rain = 0
KPD4 081701Z 23016KT 10/03 A3033 RMK A01 T00970029  RH  063%=      5-min Rain = 0
KPD4 081702Z 22016KT 10/03 A3033 RMK A01 T00970029  RH  063%=      5-min Rain = 0
KPD4 081703Z 22012KT 10/03 A3033 RMK A01 T00950029  RH  063%=      5-min Rain = 0
KPD4 081704Z 22013KT 10/03 A3033 RMK A01 T00980031  RH  063%=      5-min Rain = 0
KPD4 081705Z 22015KT 10/03 A3033 RMK A01 T00980031  RH  063%=      5-min Rain = 0
KPD4 081706Z 22016KT 10/03 A3033 RMK A01 T00980029  RH  062%=      5-min Rain = 0
KPD4 081707Z 22016KT 10/03 A3033 RMK A01 T00960029  RH  063%=      5-min Rain = 0
KPD4 081708Z 22014KT 10/03 A3033 RMK A01 T00950029  RH  064%=      5-min Rain = 0
KPD4 081709Z 21017KT 10/03 A3033 RMK A01 T00950030  RH  064%=      5-min Rain = 0
KPD4 081710Z 22016KT 10/03 A3033 RMK A01 T00950030  RH  064%=      5-min Rain = 0
KPD4 081711Z 22015KT 10/03 A3033 RMK A01 T00950031  RH  064%=      5-min Rain = 0
KPD4 081712Z 21015KT 10/03 A3033 RMK A01 T00950030  RH  064%=      5-min Rain = 0
KPD4 081713Z 21013KT 09/03 A3033 RMK A01 T00940030  RH  064%=      5-min Rain = 0
KPD4 081714Z 23013G18KT 10/03 A3033 RMK A01 T00960032  RH  064%=      5-min Rain = 0
KPD4 081715Z 22015KT 10/03 A3033 RMK A01 T00980032  RH  063%=      5-min Rain = 0
KPD4 081716Z 23013KT 10/03 A3033 RMK A01 T00980032  RH  063%=      5-min Rain = 0
KPD4 081717Z 22014KT 10/03 A3033 RMK A01 T00980031  RH  063%=      5-min Rain = 0
KPD4 081718Z 21010KT 10/03 A3033 RMK A01 T00980032  RH  063%=      5-min Rain = 0
KPD4 081719Z 20015KT 10/03 A3033 RMK A01 T01000033  RH  063%=      5-min Rain = 0
KPD4 081720Z 20014KT 10/03 A3033 RMK A01 T01000032  RH  063%=      5-min Rain = 0
KPD4 081721Z 20013KT 10/03 A3033 RMK A01 T00990032  RH  063%=      5-min Rain = 0
KPD4 081722Z 21016KT 10/03 A3033 RMK A01 T01000033  RH  063%=      5-min Rain = 0
KPD4 081723Z 20015KT 10/03 A3033 RMK A01 T00990032  RH  063%=      5-min Rain = 0
KPD4 081724Z 21014KT 10/03 A3032 RMK A01 T01000034  RH  064%=      5-min Rain = 0
KPD4 081725Z 20015KT 10/04 A3032 RMK A01 T01030035  RH  063%=      5-min Rain = 0
KPD4 081726Z 22013KT 10/03 A3032 RMK A01 T01030034  RH  062%=      5-min Rain = 0
KPD4 081727Z 22015KT 10/03 A3032 RMK A01 T01030034  RH  062%=      5-min Rain = 0
KPD4 081728Z 22016KT 10/04 A3032 RMK A01 T01040035  RH  062%=      5-min Rain = 0
KPD4 081729Z 22014KT 11/04 A3032 RMK A01 T01070037  RH  062%=      5-min Rain = 0
KPD4 081730Z 21013KT 11/04 A3032 RMK A01 T01090036  RH  061%=      5-min Rain = 0
KPD4 081731Z 20017KT 11/03 A3032 RMK A01 T01090034  RH  060%=      5-min Rain = 0
KPD4 081732Z 21015KT 11/03 A3032 RMK A01 T01050033  RH  061%=      5-min Rain = 0
KPD4 081733Z 22013KT 10/03 A3032 RMK A01 T01030033  RH  062%=      5-min Rain = 0
KPD4 081734Z 21012KT 10/03 A3032 RMK A01 T01030034  RH  062%=      5-min Rain = 0
KPD4 081735Z 21013KT 11/04 A3032 RMK A01 T01050035  RH  062%=      5-min Rain = 0
KPD4 081736Z 20014G20KT 11/04 A3032 RMK A01 T01060035  RH  061%=      5-min Rain = 0
KPD4 081737Z 21016KT 11/04 A3032 RMK A01 T01060035  RH  061%=      5-min Rain = 0
KPD4 081738Z 23016KT 10/03 A3032 RMK A01 T01040034  RH  062%=      5-min Rain = 0
KPD4 081739Z 23014KT 11/04 A3032 RMK A01 T01060036  RH  062%=      5-min Rain = 0
KPD4 081740Z 21011KT 11/04 A3032 RMK A01 T01070036  RH  061%=      5-min Rain = 0
KPD4 081741Z 22017KT 11/04 A3031 RMK A01 T01080035  RH  060%=      5-min Rain = 0
KPD4 081742Z 23015KT 10/03 A3032 RMK A01 T01030032  RH  061%=      5-min Rain = 0
KPD4 081743Z 23012KT 10/03 A3031 RMK A01 T01010032  RH  062%=      5-min Rain = 0
KPD4 081744Z 23014KT 10/03 A3031 RMK A01 T01030034  RH  063%=      5-min Rain = 0
KPD4 081745Z 23012G17KT 11/04 A3031 RMK A01 T01050036  RH  062%=      5-min Rain = 0
KPD4 081746Z 22016KT 11/04 A3031 RMK A01 T01110040  RH  062%=      5-min Rain = 0
KPD4 081747Z 20017KT 12/04 A3031 RMK A01 T01160038  RH  059%=      5-min Rain = 0
KPD4 081748Z 21018KT 12/04 A3031 RMK A01 T01150036  RH  059%=      5-min Rain = 0
KPD4 081749Z 20015KT 11/04 A3031 RMK A01 T01120035  RH  059%=      5-min Rain = 0
KPD4 081750Z 18016KT 11/03 A3031 RMK A01 T01080034  RH  060%=      5-min Rain = 0
KPD4 081751Z 19017KT 11/04 A3031 RMK A01 T01080035  RH  061%=      5-min Rain = 0
KPD4 081752Z 19017KT 11/04 A3031 RMK A01 T01100036  RH  060%=      5-min Rain = 0
KPD4 081753Z 19015KT 11/04 A3031 RMK A01 T01120035  RH  059%=      5-min Rain = 0
KPD4 081754Z 20016KT 11/03 A303 RMK A01 T01100033  RH  059%=      5-min Rain = 0
KPD4 081755Z 20017KT 11/03 A303 RMK A01 T01050032  RH  060%=      5-min Rain = 0
KPD4 081756Z 21015KT 10/03 A303 RMK A01 T01010031  RH  062%=      5-min Rain = 0
KPD4 081757Z 22013KT 10/03 A303 RMK A01 T00980031  RH  063%=      5-min Rain = 0
KPD4 081758Z 22015KT 10/03 A303 RMK A01 T00990033  RH  063%=      5-min Rain = 0
KPD4 081759Z 22012KT 10/04 A303 RMK A01 T01010035  RH  064%=      5-min Rain = 0
KPD4 081800Z 20017G22KT 11/04 A303 RMK A01 T01070039  RH  063%=      5-min Rain = 0
KPD4 081801Z 20015KT 11/04 A303 RMK A01 T01090037  RH  061%=      5-min Rain = 0
KPD4 081802Z 21017KT 11/04 A303 RMK A01 T01110037  RH  060%=      5-min Rain = 0
KPD4 081803Z 21015KT 11/04 A303 RMK A01 T01130037  RH  060%=      5-min Rain = 0
KPD4 081804Z 20014KT 11/04 A303 RMK A01 T01140038  RH  060%=      5-min Rain = 0
KPD4 081805Z 20015KT 12/04 A303 RMK A01 T01190039  RH  058%=      5-min Rain = 0
KPD4 081806Z 20016KT 12/04 A303 RMK A01 T01190037  RH  057%=      5-min Rain = 0
KPD4 081807Z 21016KT 12/04 A3029 RMK A01 T01180036  RH  057%=      5-min Rain = 0
KPD4 081808Z 19015KT 12/04 A3029 RMK A01 T01190037  RH  057%=      5-min Rain = 0
KPD4 081809Z 20017KT 12/04 A3029 RMK A01 T01200037  RH  057%=      5-min Rain = 0
KPD4 081810Z 20015G22KT 12/04 A3029 RMK A01 T01190036  RH  057%=      5-min Rain = 0
KPD4 081816Z 20015G20KT 12/04 A3028 RMK A01 T01210037  RH  056%=      5-min Rain = 0
KPD4 081817Z 19017KT 12/04 A3028 RMK A01 T01200036  RH  056%=      5-min Rain = 0
KPD4 081818Z 19017KT 12/04 A3028 RMK A01 T01160035  RH  057%=      5-min Rain = 0
KPD4 081819Z 20014KT 12/04 A3028 RMK A01 T01150036  RH  058%=      5-min Rain = 0
KPD4 081820Z 20015KT 12/04 A3028 RMK A01 T01160037  RH  058%=      5-min Rain = 0
KPD4 081821Z 20013KT 12/04 A3028 RMK A01 T01190038  RH  057%=      5-min Rain = 0
KPD4 081822Z 19015KT 12/04 A3028 RMK A01 T01220038  RH  057%=      5-min Rain = 0
KPD4 081823Z 20011KT 12/04 A3028 RMK A01 T01220037  RH  056%=      5-min Rain = 0
KPD4 081824Z 20014KT 13/04 A3028 RMK A01 T01250040  RH  056%=      5-min Rain = 0
KPD4 081825Z 19013KT 12/04 A3028 RMK A01 T01240037  RH  055%=      5-min Rain = 0
KPD4 081826Z 20012KT 12/04 A3028 RMK A01 T01200035  RH  056%=      5-min Rain = 0
KPD4 081827Z 22012KT 12/04 A3028 RMK A01 T01190037  RH  057%=      5-min Rain = 0
KPD4 081828Z 23013G18KT 12/04 A3028 RMK A01 T01220038  RH  056%=      5-min Rain = 0
KPD4 081829Z 21012KT 12/04 A3028 RMK A01 T01200036  RH  056%=      5-min Rain = 0
KPD4 081830Z 19014KT 12/04 A3028 RMK A01 T01200037  RH  057%=      5-min Rain = 0
KPD4 081831Z 20014G21KT 12/04 A3028 RMK A01 T01230038  RH  056%=      5-min Rain = 0
KPD4 081832Z 21017KT 13/04 A3028 RMK A01 T01260039  RH  055%=      5-min Rain = 0
KPD4 081833Z 22014KT 12/04 A3028 RMK A01 T01230035  RH  055%=      5-min Rain = 0
KPD4 081834Z 20014KT 12/04 A3028 RMK A01 T01210037  RH  056%=      5-min Rain = 0
KPD4 081835Z 21015KT 12/04 A3028 RMK A01 T01240038  RH  056%=      5-min Rain = 0
KPD4 081836Z 21013KT 12/04 A3028 RMK A01 T01230036  RH  056%=      5-min Rain = 0
KPD4 081837Z 22012KT 12/04 A3028 RMK A01 T01210036  RH  056%=      5-min Rain = 0
KPD4 081838Z 21011KT 12/04 A3028 RMK A01 T01210037  RH  057%=      5-min Rain = 0
KPD4 081839Z 21016KT 12/04 A3028 RMK A01 T01240039  RH  056%=      5-min Rain = 0
KPD4 081840Z 20014G19KT 13/04 A3028 RMK A01 T01250036  RH  055%=      5-min Rain = 0
KPD4 081841Z 21013KT 12/04 A3028 RMK A01 T01210036  RH  056%=      5-min Rain = 0
KPD4 081842Z 21011KT 12/04 A3028 RMK A01 T01220037  RH  056%=      5-min Rain = 0
KPD4 081843Z 23013KT 12/04 A3028 RMK A01 T01240038  RH  056%=      5-min Rain = 0
KPD4 081844Z 21013G18KT 13/04 A3028 RMK A01 T01280039  RH  055%=      5-min Rain = 0
KPD4 081845Z 20012KT 13/04 A3028 RMK A01 T01290038  RH  054%=      5-min Rain = 0
KPD4 081846Z 21013KT 13/04 A3027 RMK A01 T01280038  RH  054%=      5-min Rain = 0
KPD4 081847Z 22010KT 13/04 A3027 RMK A01 T01260037  RH  054%=      5-min Rain = 0
KPD4 081848Z 23011KT 13/04 A3027 RMK A01 T01260037  RH  055%=      5-min Rain = 0
KPD4 081849Z 21017G22KT 13/04 A3027 RMK A01 T01290039  RH  054%=      5-min Rain = 0
KPD4 081850Z 21017KT 13/04 A3027 RMK A01 T01300037  RH  053%=      5-min Rain = 0
KPD4 081851Z 21014KT 13/04 A3027 RMK A01 T01270035  RH  054%=      5-min Rain = 0
KPD4 081852Z 21012KT 13/04 A3027 RMK A01 T01250037  RH  055%=      5-min Rain = 0
KPD4 081853Z 23013KT 13/04 A3027 RMK A01 T01270037  RH  054%=      5-min Rain = 0
KPD4 081854Z 22012KT 13/04 A3027 RMK A01 T01270037  RH  054%=      5-min Rain = 0
KPD4 081855Z 20013KT 13/04 A3027 RMK A01 T01290038  RH  054%=      5-min Rain = 0
KPD4 081856Z 20010KT 13/04 A3027 RMK A01 T01260037  RH  055%=      5-min Rain = 0
KPD4 081857Z 21013KT 13/04 A3027 RMK A01 T01280040  RH  055%=      5-min Rain = 0
KPD4 081858Z 22016KT 13/04 A3027 RMK A01 T01310038  RH  053%=      5-min Rain = 0
KPD4 081859Z 22013KT 13/04 A3027 RMK A01 T01300037  RH  053%=      5-min Rain = 0
KPD4 081900Z 22012KT 13/04 A3027 RMK A01 T01290037  RH  054%=      5-min Rain = 0
KPD4 081901Z 22012KT 13/04 A3026 RMK A01 T01270036  RH  054%=      5-min Rain = 0
KPD4 081902Z 21013KT 13/04 A3026 RMK A01 T01270037  RH  054%=      5-min Rain = 0
KPD4 081903Z 22014KT 13/04 A3026 RMK A01 T01280036  RH  054%=      5-min Rain = 0
KPD4 081904Z 24012KT 13/04 A3026 RMK A01 T01270036  RH  054%=      5-min Rain = 0
KPD4 081905Z 23011KT 13/04 A3026 RMK A01 T01250036  RH  054%=      5-min Rain = 0
KPD4 081906Z 21013KT 13/04 A3026 RMK A01 T01270038  RH  055%=      5-min Rain = 0
KPD4 081907Z 21012KT 13/04 A3026 RMK A01 T01290037  RH  053%=      5-min Rain = 0
KPD4 081908Z 22012KT 13/04 A3026 RMK A01 T01290037  RH  053%=      5-min Rain = 0
KPD4 081909Z 20012KT 13/04 A3026 RMK A01 T01290037  RH  054%=      5-min Rain = 0
KPD4 081910Z 21009KT 13/04 A3026 RMK A01 T01260036  RH  054%=      5-min Rain = 0
KPD4 081911Z 21010G16KT 13/04 A3026 RMK A01 T01260037  RH  055%=      5-min Rain = 0
KPD4 081912Z 22014KT 13/04 A3026 RMK A01 T01300039  RH  054%=      5-min Rain = 0
KPD4 081913Z 21012KT 13/04 A3026 RMK A01 T01320037  RH  053%=      5-min Rain = 0
KPD4 081914Z 22010KT 13/04 A3026 RMK A01 T01270035  RH  053%=      5-min Rain = 0
KPD4 081915Z 22009KT 13/04 A3026 RMK A01 T01260036  RH  054%=      5-min Rain = 0
KPD4 081916Z 22011KT 13/04 A3025 RMK A01 T01280039  RH  055%=      5-min Rain = 0
KPD4 081917Z 23012KT 14/04 A3025 RMK A01 T01350042  RH  053%=      5-min Rain = 0
KPD4 081918Z 23011KT 14/04 A3025 RMK A01 T01390040  RH  051%=      5-min Rain = 0
KPD4 081919Z 21015KT 14/04 A3025 RMK A01 T01360037  RH  051%=      5-min Rain = 0
KPD4 081920Z 22011G16KT 13/04 A3025 RMK A01 T01310035  RH  052%=      5-min Rain = 0
KPD4 081921Z 21012KT 13/04 A3025 RMK A01 T01300038  RH  054%=      5-min Rain = 0
KPD4 081922Z 21014KT 14/04 A3025 RMK A01 T01350040  RH  053%=      5-min Rain = 0
KPD4 081923Z 22014KT 14/04 A3025 RMK A01 T01360038  RH  051%=      5-min Rain = 0
KPD4 081924Z 22012KT 14/04 A3025 RMK A01 T01350037  RH  052%=      5-min Rain = 0
KPD4 081925Z 24013KT 13/04 A3025 RMK A01 T01320037  RH  052%=      5-min Rain = 0
KPD4 081926Z 23012KT 13/04 A3025 RMK A01 T01340039  RH  053%=      5-min Rain = 0
KPD4 081927Z 21011KT 13/04 A3025 RMK A01 T01340038  RH  052%=      5-min Rain = 0
KPD4 081928Z 21013KT 13/04 A3025 RMK A01 T01340038  RH  052%=      5-min Rain = 0
KPD4 081929Z 23010KT 13/04 A3025 RMK A01 T01340038  RH  052%=      5-min Rain = 0
KPD4 081930Z 22010KT 13/04 A3025 RMK A01 T01330038  RH  053%=      5-min Rain = 0
KPD4 081931Z 20013KT 13/04 A3025 RMK A01 T01340038  RH  052%=      5-min Rain = 0
KPD4 081932Z 20008KT 13/04 A3025 RMK A01 T01320037  RH  052%=      5-min Rain = 0
KPD4 081933Z 20008KT 13/04 A3025 RMK A01 T01330039  RH  053%=      5-min Rain = 0
KPD4 081934Z 24011KT 14/04 A3024 RMK A01 T01360040  RH  052%=      5-min Rain = 0
KPD4 081935Z 23011KT 14/04 A3024 RMK A01 T01400041  RH  051%=      5-min Rain = 0
KPD4 081936Z 23012KT 14/04 A3024 RMK A01 T01420039  RH  050%=      5-min Rain = 0
KPD4 081937Z 21012KT 14/04 A3024 RMK A01 T01390038  RH  050%=      5-min Rain = 0
KPD4 081938Z 20010KT 14/04 A3024 RMK A01 T01390039  RH  051%=      5-min Rain = 0
KPD4 081939Z 19009KT 14/04 A3024 RMK A01 T01400039  RH  051%=      5-min Rain = 0
KPD4 081940Z 21011KT 14/04 A3024 RMK A01 T01410039  RH  050%=      5-min Rain = 0
KPD4 081941Z 21013KT 14/04 A3024 RMK A01 T01390038  RH  050%=      5-min Rain = 0
KPD4 081942Z 22012KT 14/04 A3024 RMK A01 T01370037  RH  051%=      5-min Rain = 0
KPD4 081943Z 22010KT 13/04 A3024 RMK A01 T01340037  RH  052%=      5-min Rain = 0
KPD4 081944Z 24012KT 14/04 A3024 RMK A01 T01380040  RH  052%=      5-min Rain = 0
KPD4 081945Z 24012KT 14/04 A3024 RMK A01 T01400038  RH  050%=      5-min Rain = 0
KPD4 081946Z 23013KT 14/04 A3024 RMK A01 T01410038  RH  050%=      5-min Rain = 0
KPD4 081947Z 23011KT 14/04 A3024 RMK A01 T01390036  RH  050%=      5-min Rain = 0
KPD4 081948Z 23008KT 14/04 A3024 RMK A01 T01380036  RH  050%=      5-min Rain = 0
KPD4 081949Z 22008KT 14/04 A3024 RMK A01 T01370037  RH  051%=      5-min Rain = 0
KPD4 081950Z 22012KT 14/04 A3024 RMK A01 T01410040  RH  051%=      5-min Rain = 0
KPD4 081951Z 21010KT 14/04 A3024 RMK A01 T01410038  RH  050%=      5-min Rain = 0
KPD4 081952Z 21010KT 14/04 A3024 RMK A01 T01390037  RH  050%=      5-min Rain = 0
KPD4 081953Z 21012KT 14/04 A3024 RMK A01 T01390038  RH  050%=      5-min Rain = 0
KPD4 081954Z 21013KT 14/04 A3023 RMK A01 T01400038  RH  050%=      5-min Rain = 0
KPD4 081955Z 21009KT 14/04 A3023 RMK A01 T01390037  RH  050%=      5-min Rain = 0
KPD4 081956Z 21010KT 14/04 A3023 RMK A01 T01390038  RH  050%=      5-min Rain = 0
KPD4 081957Z 20009KT 14/04 A3023 RMK A01 T01390038  RH  051%=      5-min Rain = 0
KPD4 081958Z 22008KT 14/04 A3023 RMK A01 T01370037  RH  051%=      5-min Rain = 0
KPD4 081959Z 24009KT 14/04 A3023 RMK A01 T01370036  RH  051%=      5-min Rain = 0
KPD4 082000Z 22010KT 14/04 A3023 RMK A01 T01400039  RH  051%=      5-min Rain = 0
KPD4 082001Z 23008KT 14/04 A3023 RMK A01 T01410038  RH  050%=      5-min Rain = 0
KPD4 082002Z 23010KT 14/04 A3023 RMK A01 T01430040  RH  050%=      5-min Rain = 0
KPD4 082003Z 22011KT 15/04 A3023 RMK A01 T01450038  RH  049%=      5-min Rain = 0
KPD4 082004Z 21008KT 14/04 A3023 RMK A01 T01440038  RH  049%=      5-min Rain = 0
KPD4 082005Z 22011KT 15/04 A3023 RMK A01 T01450040  RH  049%=      5-min Rain = 0
KPD4 082006Z 22010KT 15/04 A3023 RMK A01 T01460037  RH  048%=      5-min Rain = 0
KPD4 082007Z 23008KT 14/04 A3023 RMK A01 T01430036  RH  049%=      5-min Rain = 0
KPD4 082008Z 23011KT 15/04 A3023 RMK A01 T01450039  RH  049%=      5-min Rain = 0
KPD4 082009Z 23013KT 15/04 A3023 RMK A01 T01470037  RH  048%=      5-min Rain = 0
KPD4 082010Z 24013KT 14/03 A3023 RMK A01 T01440034  RH  048%=      5-min Rain = 0
KPD4 082011Z 26008KT 14/04 A3023 RMK A01 T01430035  RH  048%=      5-min Rain = 0
KPD4 082012Z 23008KT 14/04 A3023 RMK A01 T01430036  RH  048%=      5-min Rain = 0
KPD4 082013Z 23007KT 15/04 A3023 RMK A01 T01460036  RH  048%=      5-min Rain = 0
KPD4 082014Z 23007KT 14/04 A3023 RMK A01 T01440035  RH  048%=      5-min Rain = 0
KPD4 082015Z 25008KT 15/04 A3023 RMK A01 T01460037  RH  048%=      5-min Rain = 0
KPD4 082016Z 24008KT 15/04 A3023 RMK A01 T01490038  RH  047%=      5-min Rain = 0
KPD4 082017Z 23011KT 15/04 A3023 RMK A01 T01510039  RH  047%=      5-min Rain = 0
KPD4 082018Z 23010KT 15/04 A3023 RMK A01 T01530038  RH  046%=      5-min Rain = 0
KPD4 082019Z 23012KT 15/04 A3023 RMK A01 T01540038  RH  046%=      5-min Rain = 0
KPD4 082020Z 22010KT 15/04 A3023 RMK A01 T01490035  RH  046%=      5-min Rain = 0
KPD4 082021Z 21008KT 15/04 A3023 RMK A01 T01460035  RH  047%=      5-min Rain = 0
KPD4 082022Z 22008KT 14/04 A3023 RMK A01 T01440036  RH  048%=      5-min Rain = 0
KPD4 082023Z 24011KT 15/04 A3023 RMK A01 T01460037  RH  048%=      5-min Rain = 0
KPD4 082024Z 24010KT 14/03 A3023 RMK A01 T01430034  RH  048%=      5-min Rain = 0
KPD4 082025Z 24008KT 14/03 A3023 RMK A01 T01410034  RH  049%=      5-min Rain = 0
KPD4 082026Z 22006KT 14/04 A3022 RMK A01 T01420036  RH  049%=      5-min Rain = 0
KPD4 082027Z 23008KT 15/04 A3022 RMK A01 T01460037  RH  048%=      5-min Rain = 0
KPD4 082028Z 24009KT 15/04 A3022 RMK A01 T01500038  RH  047%=      5-min Rain = 0
KPD4 082029Z 23008KT 15/04 A3022 RMK A01 T01490037  RH  047%=      5-min Rain = 0
KPD4 082030Z 24007KT 15/04 A3022 RMK A01 T01500038  RH  047%=      5-min Rain = 0
KPD4 082031Z 24012KT 15/04 A3022 RMK A01 T01510037  RH  046%=      5-min Rain = 0
KPD4 082032Z 24011KT 15/04 A3022 RMK A01 T01500035  RH  046%=      5-min Rain = 0
KPD4 082033Z 25009KT 15/04 A3022 RMK A01 T01470035  RH  047%=      5-min Rain = 0
KPD4 082034Z 22008KT 15/04 A3022 RMK A01 T01480037  RH  047%=      5-min Rain = 0
KPD4 082035Z 22008KT 15/04 A3022 RMK A01 T01510037  RH  047%=      5-min Rain = 0
KPD4 082036Z 23010KT 15/04 A3022 RMK A01 T01520037  RH  046%=      5-min Rain = 0
KPD4 082037Z 24012KT 16/04 A3022 RMK A01 T01550036  RH  045%=      5-min Rain = 0
KPD4 082038Z 24011KT 15/03 A3022 RMK A01 T01510034  RH  046%=      5-min Rain = 0
KPD4 082039Z 23011KT 15/04 A3022 RMK A01 T01510037  RH  047%=      5-min Rain = 0
KPD4 082040Z 23011KT 15/04 A3022 RMK A01 T01530038  RH  046%=      5-min Rain = 0
KPD4 082041Z 22010KT 15/04 A3022 RMK A01 T01530037  RH  046%=      5-min Rain = 0
KPD4 082042Z 24009KT 15/04 A3022 RMK A01 T01530036  RH  046%=      5-min Rain = 0
KPD4 082043Z 24011KT 15/04 A3022 RMK A01 T01500036  RH  046%=      5-min Rain = 0
KPD4 082044Z 22011KT 15/04 A3022 RMK A01 T01500036  RH  047%=      5-min Rain = 0
KPD4 082045Z 21010KT 15/04 A3022 RMK A01 T01510037  RH  046%=      5-min Rain = 0
KPD4 082046Z 21009KT 15/04 A3022 RMK A01 T01520036  RH  046%=      5-min Rain = 0
KPD4 082047Z 23009KT 15/04 A3022 RMK A01 T01520035  RH  046%=      5-min Rain = 0
KPD4 082048Z 23012KT 15/04 A3022 RMK A01 T01520035  RH  046%=      5-min Rain = 0
KPD4 082049Z 24008KT 15/03 A3022 RMK A01 T01530034  RH  045%=      5-min Rain = 0
KPD4 082050Z 25010KT 15/03 A3022 RMK A01 T01540034  RH  045%=      5-min Rain = 0
KPD4 082051Z 24010KT 15/03 A3022 RMK A01 T01540034  RH  045%=      5-min Rain = 0
KPD4 082052Z 23009KT 15/03 A3022 RMK A01 T01520034  RH  045%=      5-min Rain = 0
KPD4 082053Z 22010G16KT 15/03 A3022 RMK A01 T01510034  RH  045%=      5-min Rain = 0
KPD4 082054Z 23011KT 15/04 A3022 RMK A01 T01520035  RH  045%=      5-min Rain = 0
KPD4 082055Z 22008KT 15/03 A3022 RMK A01 T01530034  RH  045%=      5-min Rain = 0
KPD4 082056Z 23009KT 15/03 A3021 RMK A01 T01510034  RH  045%=      5-min Rain = 0
KPD4 082057Z 21012KT 15/03 A3021 RMK A01 T01520034  RH  045%=      5-min Rain = 0
KPD4 082058Z 21012KT 15/03 A3021 RMK A01 T01540032  RH  044%=      5-min Rain = 0
KPD4 082059Z 22012KT 16/03 A3021 RMK A01 T01560033  RH  044%=      5-min Rain = 0
KPD4 082100Z 22009KT 16/03 A3021 RMK A01 T01560032  RH  043%=      5-min Rain = 0
KPD4 082101Z 21010KT 16/03 A3021 RMK A01 T01560033  RH  044%=      5-min Rain = 0
KPD4 082102Z 22008KT 16/03 A3021 RMK A01 T01550032  RH  044%=      5-min Rain = 0
KPD4 082103Z 22009KT 15/03 A3021 RMK A01 T01520032  RH  044%=      5-min Rain = 0
KPD4 082104Z 23009KT 15/03 A3021 RMK A01 T01520033  RH  045%=      5-min Rain = 0
KPD4 082105Z 22011KT 15/03 A3021 RMK A01 T01530033  RH  045%=      5-min Rain = 0
KPD4 082106Z 22010KT 16/03 A3021 RMK A01 T01550032  RH  044%=      5-min Rain = 0
KPD4 082107Z 24011KT 16/03 A3021 RMK A01 T01550031  RH  043%=      5-min Rain = 0
KPD4 082108Z 24010KT 16/03 A3021 RMK A01 T01560031  RH  043%=      5-min Rain = 0
KPD4 082109Z 22010KT 16/03 A3021 RMK A01 T01570033  RH  043%=      5-min Rain = 0
KPD4 082110Z 21011KT 16/03 A3021 RMK A01 T01570032  RH  043%=      5-min Rain = 0
KPD4 082111Z 21010KT 16/03 A3021 RMK A01 T01570033  RH  043%=      5-min Rain = 0
KPD4 082112Z 20012KT 16/03 A3021 RMK A01 T01560033  RH  044%=      5-min Rain = 0
KPD4 082113Z 21010KT 16/03 A3021 RMK A01 T01560034  RH  044%=      5-min Rain = 0
KPD4 082114Z 23011KT 16/04 A3021 RMK A01 T01580035  RH  044%=      5-min Rain = 0
KPD4 082115Z 23009KT 16/03 A3021 RMK A01 T01560033  RH  044%=      5-min Rain = 0
KPD4 082116Z 23010KT 16/04 A3021 RMK A01 T01570035  RH  044%=      5-min Rain = 0
KPD4 082117Z 21011KT 16/03 A302 RMK A01 T01590034  RH  043%=      5-min Rain = 0
KPD4 082118Z 21009KT 16/03 A3021 RMK A01 T01570033  RH  043%=      5-min Rain = 0
KPD4 082119Z 22007KT 16/03 A3021 RMK A01 T01570032  RH  043%=      5-min Rain = 0
KPD4 082120Z 23008KT 16/03 A302 RMK A01 T01580033  RH  043%=      5-min Rain = 0
KPD4 082121Z 22007KT 16/03 A302 RMK A01 T01590033  RH  043%=      5-min Rain = 0
KPD4 082122Z 22009KT 16/04 A302 RMK A01 T01620035  RH  043%=      5-min Rain = 0
KPD4 082123Z 23013KT 16/03 A302 RMK A01 T01630033  RH  042%=      5-min Rain = 0
KPD4 082124Z 23010KT 16/03 A302 RMK A01 T01610031  RH  042%=      5-min Rain = 0
KPD4 082125Z 22010KT 16/03 A302 RMK A01 T01590031  RH  042%=      5-min Rain = 0
KPD4 082126Z 24011KT 16/03 A302 RMK A01 T01590031  RH  042%=      5-min Rain = 0
KPD4 082127Z 23009KT 16/03 A302 RMK A01 T01590031  RH  042%=      5-min Rain = 0
KPD4 082128Z 22008KT 16/03 A302 RMK A01 T01580031  RH  043%=      5-min Rain = 0
KPD4 082129Z 23008KT 16/03 A302 RMK A01 T01580031  RH  042%=      5-min Rain = 0
KPD4 082130Z 22009KT 16/03 A302 RMK A01 T01590032  RH  043%=      5-min Rain = 0
KPD4 082131Z 22009KT 16/03 A302 RMK A01 T01610033  RH  042%=      5-min Rain = 0
KPD4 082132Z 21006KT 16/03 A302 RMK A01 T01610033  RH  042%=      5-min Rain = 0
KPD4 082133Z 21008KT 16/03 A302 RMK A01 T01610033  RH  042%=      5-min Rain = 0
KPD4 082134Z 22011KT 16/03 A302 RMK A01 T01620034  RH  042%=      5-min Rain = 0
KPD4 082135Z 23010KT 16/03 A302 RMK A01 T01630033  RH  042%=      5-min Rain = 0
KPD4 082136Z 22009KT 16/03 A302 RMK A01 T01630034  RH  042%=      5-min Rain = 0
KPD4 082137Z 21010KT 17/03 A302 RMK A01 T01660033  RH  041%=      5-min Rain = 0
KPD4 082138Z 21008KT 16/03 A302 RMK A01 T01640032  RH  041%=      5-min Rain = 0
KPD4 082139Z 22008KT 16/03 A302 RMK A01 T01630034  RH  042%=      5-min Rain = 0
KPD4 082140Z 21007KT 17/04 A302 RMK A01 T01650035  RH  042%=      5-min Rain = 0
KPD4 082141Z 21008KT 17/04 A302 RMK A01 T01660035  RH  041%=      5-min Rain = 0
KPD4 082142Z 20010KT 17/03 A302 RMK A01 T01650033  RH  041%=      5-min Rain = 0
KPD4 082143Z 22010KT 16/03 A302 RMK A01 T01640032  RH  041%=      5-min Rain = 0
KPD4 082144Z 22009KT 17/03 A302 RMK A01 T01650030  RH  041%=      5-min Rain = 0
KPD4 082145Z 22007KT 16/03 A302 RMK A01 T01630029  RH  041%=      5-min Rain = 0
KPD4 082146Z 20008KT 16/03 A302 RMK A01 T01620030  RH  041%=      5-min Rain = 0
KPD4 082147Z 21009KT 16/03 A302 RMK A01 T01620031  RH  041%=      5-min Rain = 0
KPD4 082148Z 21010KT 16/03 A302 RMK A01 T01630033  RH  042%=      5-min Rain = 0
KPD4 082149Z 20012KT 16/03 A302 RMK A01 T01640034  RH  042%=      5-min Rain = 0
KPD4 082150Z 20011KT 16/04 A302 RMK A01 T01630035  RH  042%=      5-min Rain = 0
KPD4 082151Z 20010KT 16/04 A302 RMK A01 T01620035  RH  042%=      5-min Rain = 0
KPD4 082152Z 20009KT 16/03 A302 RMK A01 T01620034  RH  042%=      5-min Rain = 0
KPD4 082153Z 21010KT 16/03 A302 RMK A01 T01610034  RH  042%=      5-min Rain = 0
KPD4 082154Z 23008KT 16/03 A302 RMK A01 T01620033  RH  042%=      5-min Rain = 0
KPD4 082155Z 23007KT 16/03 A302 RMK A01 T01630032  RH  042%=      5-min Rain = 0
KPD4 082156Z 21007KT 17/03 A302 RMK A01 T01650032  RH  041%=      5-min Rain = 0
KPD4 082157Z 20010KT 17/03 A302 RMK A01 T01660034  RH  041%=      5-min Rain = 0
KPD4 082158Z 20010KT 16/03 A302 RMK A01 T01640033  RH  042%=      5-min Rain = 0
KPD4 082159Z 20009KT 16/03 A302 RMK A01 T01630034  RH  042%=      5-min Rain = 0
KPD4 082200Z 22010KT 16/03 A302 RMK A01 T01640033  RH  042%=      5-min Rain = 0
KPD4 082201Z 21009KT 16/03 A302 RMK A01 T01640033  RH  041%=      5-min Rain = 0
KPD4 082202Z 21011KT 17/03 A302 RMK A01 T01650034  RH  042%=      5-min Rain = 0
KPD4 082203Z 21011KT 17/03 A302 RMK A01 T01660034  RH  041%=      5-min Rain = 0
KPD4 082204Z 21010KT 17/03 A302 RMK A01 T01650032  RH  041%=      5-min Rain = 0
KPD4 082205Z 21010KT 16/03 A302 RMK A01 T01630032  RH  041%=      5-min Rain = 0
KPD4 082206Z 21011KT 16/03 A302 RMK A01 T01640032  RH  041%=      5-min Rain = 0
KPD4 082207Z 22010KT 16/03 A302 RMK A01 T01630030  RH  041%=      5-min Rain = 0
KPD4 082208Z 22009KT 16/03 A302 RMK A01 T01620030  RH  041%=      5-min Rain = 0
KPD4 082209Z 21008KT 16/03 A302 RMK A01 T01620031  RH  041%=      5-min Rain = 0
KPD4 082210Z 21008KT 16/03 A302 RMK A01 T01630031  RH  041%=      5-min Rain = 0
KPD4 082211Z 23008KT 16/03 A302 RMK A01 T01630032  RH  041%=      5-min Rain = 0
KPD4 082212Z 23010KT 16/03 A3019 RMK A01 T01630032  RH  041%=      5-min Rain = 0
KPD4 082213Z 24010KT 16/03 A3019 RMK A01 T01640032  RH  041%=      5-min Rain = 0
KPD4 082214Z 23010KT 17/03 A3019 RMK A01 T01650032  RH  041%=      5-min Rain = 0
KPD4 082215Z 23011KT 17/03 A3019 RMK A01 T01650032  RH  041%=      5-min Rain = 0
KPD4 082216Z 21009KT 16/03 A3019 RMK A01 T01630032  RH  041%=      5-min Rain = 0
KPD4 082217Z 22010KT 16/03 A3019 RMK A01 T01630032  RH  042%=      5-min Rain = 0
KPD4 082218Z 22010KT 16/03 A3019 RMK A01 T01630032  RH  042%=      5-min Rain = 0
KPD4 082219Z 20011KT 16/03 A3019 RMK A01 T01620032  RH  042%=      5-min Rain = 0
KPD4 082220Z 21010KT 16/03 A3019 RMK A01 T01620032  RH  042%=      5-min Rain = 0
KPD4 082221Z 20011KT 16/03 A3019 RMK A01 T01610032  RH  042%=      5-min Rain = 0
KPD4 082222Z 19007KT 16/03 A3019 RMK A01 T01600032  RH  042%=      5-min Rain = 0
KPD4 082223Z 20007KT 16/03 A3019 RMK A01 T01600033  RH  043%=      5-min Rain = 0
KPD4 082224Z 19011KT 16/03 A3019 RMK A01 T01630033  RH  042%=      5-min Rain = 0
KPD4 082225Z 21009KT 16/03 A3019 RMK A01 T01630033  RH  042%=      5-min Rain = 0
KPD4 082226Z 21011KT 16/03 A3019 RMK A01 T01620033  RH  042%=      5-min Rain = 0
KPD4 082227Z 21010KT 16/03 A3019 RMK A01 T01610033  RH  042%=      5-min Rain = 0
KPD4 082228Z 21011KT 16/03 A3019 RMK A01 T01600032  RH  042%=      5-min Rain = 0
KPD4 082229Z 20010KT 16/03 A3019 RMK A01 T01580032  RH  043%=      5-min Rain = 0
KPD4 082230Z 20009KT 16/03 A3019 RMK A01 T01580032  RH  043%=      5-min Rain = 0
KPD4 082231Z 20008KT 16/03 A3019 RMK A01 T01580033  RH  043%=      5-min Rain = 0
KPD4 082232Z 20010KT 16/03 A3019 RMK A01 T01590033  RH  043%=      5-min Rain = 0
KPD4 082233Z 20009KT 16/03 A3019 RMK A01 T01590033  RH  043%=      5-min Rain = 0
KPD4 082234Z 21010KT 16/03 A3019 RMK A01 T01590033  RH  043%=      5-min Rain = 0
KPD4 082235Z 21010KT 16/03 A3019 RMK A01 T01590033  RH  043%=      5-min Rain = 0
KPD4 082236Z 22009KT 16/03 A3019 RMK A01 T01580032  RH  043%=      5-min Rain = 0
KPD4 082237Z 22010KT 16/03 A3019 RMK A01 T01580032  RH  043%=      5-min Rain = 0
KPD4 082238Z 23010KT 16/03 A3019 RMK A01 T01580032  RH  043%=      5-min Rain = 0
KPD4 082239Z 21009KT 16/03 A3019 RMK A01 T01580032  RH  043%=      5-min Rain = 0
KPD4 082240Z 20011KT 16/03 A3019 RMK A01 T01570032  RH  043%=      5-min Rain = 0
KPD4 082241Z 20011KT 16/03 A3019 RMK A01 T01570032  RH  043%=      5-min Rain = 0
KPD4 082242Z 20010KT 16/03 A3019 RMK A01 T01570033  RH  043%=      5-min Rain = 0
KPD4 082243Z 20011KT 16/03 A3019 RMK A01 T01570032  RH  043%=      5-min Rain = 0
KPD4 082244Z 20011KT 16/03 A3019 RMK A01 T01560032  RH  043%=      5-min Rain = 0
KPD4 082245Z 19010KT 16/03 A3019 RMK A01 T01560032  RH  043%=      5-min Rain = 0
KPD4 082246Z 20010KT 16/03 A3019 RMK A01 T01560032  RH  043%=      5-min Rain = 0
KPD4 082247Z 21010KT 16/03 A3019 RMK A01 T01560033  RH  044%=      5-min Rain = 0
KPD4 082248Z 21011KT 16/03 A3019 RMK A01 T01560032  RH  043%=      5-min Rain = 0
KPD4 082249Z 21010KT 16/03 A3019 RMK A01 T01550032  RH  044%=      5-min Rain = 0
KPD4 082250Z 21010KT 16/03 A3019 RMK A01 T01550032  RH  044%=      5-min Rain = 0
KPD4 082251Z 21011KT 16/03 A3019 RMK A01 T01550032  RH  044%=      5-min Rain = 0
KPD4 082252Z 21011KT 16/03 A3019 RMK A01 T01550032  RH  044%=      5-min Rain = 0
KPD4 082253Z 20009KT 15/03 A3019 RMK A01 T01540032  RH  044%=      5-min Rain = 0
KPD4 082254Z 21011KT 15/03 A3019 RMK A01 T01530031  RH  044%=      5-min Rain = 0
KPD4 082255Z 20008KT 15/03 A3019 RMK A01 T01530031  RH  044%=      5-min Rain = 0
KPD4 082256Z 20009KT 15/03 A3019 RMK A01 T01530032  RH  044%=      5-min Rain = 0
KPD4 082257Z 21007KT 15/03 A3019 RMK A01 T01530031  RH  044%=      5-min Rain = 0
KPD4 082258Z 20008KT 15/03 A3019 RMK A01 T01520031  RH  044%=      5-min Rain = 0
KPD4 082259Z 21007KT 15/03 A3019 RMK A01 T01520032  RH  044%=      5-min Rain = 0
KPD4 082300Z 20008KT 15/03 A3019 RMK A01 T01520032  RH  044%=      5-min Rain = 0
KPD4 082301Z 20009KT 15/03 A3019 RMK A01 T01520031  RH  044%=      5-min Rain = 0
KPD4 082302Z 20009KT 15/03 A3019 RMK A01 T01510031  RH  044%=      5-min Rain = 0
KPD4 082303Z 20008KT 15/03 A3019 RMK A01 T01510031  RH  044%=      5-min Rain = 0
KPD4 082304Z 20009KT 15/03 A3019 RMK A01 T01510031  RH  045%=      5-min Rain = 0
KPD4 082305Z 20008KT 15/03 A3019 RMK A01 T01500031  RH  045%=      5-min Rain = 0
KPD4 082306Z 21008KT 15/03 A3019 RMK A01 T01500031  RH  045%=      5-min Rain = 0
KPD4 082307Z 21007KT 15/03 A3019 RMK A01 T01490030  RH  045%=      5-min Rain = 0
KPD4 082308Z 21007KT 15/03 A3019 RMK A01 T01480030  RH  045%=      5-min Rain = 0
KPD4 082309Z 20008KT 15/03 A3019 RMK A01 T01480030  RH  045%=      5-min Rain = 0
KPD4 082310Z 21007KT 15/03 A3019 RMK A01 T01470030  RH  045%=      5-min Rain = 0
KPD4 082311Z 20008KT 15/03 A3019 RMK A01 T01470030  RH  045%=      5-min Rain = 0
KPD4 082312Z 21009KT 15/03 A3019 RMK A01 T01460030  RH  046%=      5-min Rain = 0
KPD4 082313Z 21008KT 15/03 A302 RMK A01 T01460030  RH  046%=      5-min Rain = 0
KPD4 082314Z 21007KT 15/03 A302 RMK A01 T01450030  RH  046%=      5-min Rain = 0
KPD4 082315Z 21006KT 14/03 A302 RMK A01 T01440030  RH  046%=      5-min Rain = 0
KPD4 082316Z 21007KT 14/03 A302 RMK A01 T01430029  RH  046%=      5-min Rain = 0
KPD4 082317Z 21007KT 14/03 A302 RMK A01 T01430030  RH  046%=      5-min Rain = 0
KPD4 082318Z 21006KT 14/03 A302 RMK A01 T01420029  RH  047%=      5-min Rain = 0
KPD4 082319Z 21007KT 14/03 A302 RMK A01 T01410029  RH  047%=      5-min Rain = 0
KPD4 082320Z 20007KT 14/03 A302 RMK A01 T01410029  RH  047%=      5-min Rain = 0
KPD4 082321Z 20008KT 14/03 A302 RMK A01 T01400029  RH  047%=      5-min Rain = 0
KPD4 082322Z 21007KT 14/03 A302 RMK A01 T01390029  RH  047%=      5-min Rain = 0
KPD4 082323Z 21008KT 14/03 A302 RMK A01 T01380029  RH  048%=      5-min Rain = 0
KPD4 082324Z 20008KT 14/03 A302 RMK A01 T01380029  RH  048%=      5-min Rain = 0
KPD4 082325Z 21008KT 14/03 A302 RMK A01 T01370029  RH  048%=      5-min Rain = 0
KPD4 082326Z 20008KT 14/03 A302 RMK A01 T01360029  RH  048%=      5-min Rain = 0
KPD4 082327Z 21008KT 14/03 A302 RMK A01 T01360029  RH  049%=      5-min Rain = 0
KPD4 082328Z 21008KT 14/03 A302 RMK A01 T01350029  RH  049%=      5-min Rain = 0
KPD4 082329Z 20007KT 13/03 A302 RMK A01 T01340029  RH  049%=      5-min Rain = 0
KPD4 082330Z 21007KT 13/03 A302 RMK A01 T01320028  RH  049%=      5-min Rain = 0
KPD4 082331Z 20007KT 13/03 A302 RMK A01 T01310028  RH  050%=      5-min Rain = 0
KPD4 082332Z 21007KT 13/03 A302 RMK A01 T01300028  RH  050%=      5-min Rain = 0
KPD4 082333Z 20007KT 13/03 A302 RMK A01 T01280028  RH  050%=      5-min Rain = 0
KPD4 082334Z 20007KT 13/03 A302 RMK A01 T01270027  RH  051%=      5-min Rain = 0
KPD4 082335Z 20007KT 13/03 A302 RMK A01 T01260027  RH  051%=      5-min Rain = 0
KPD4 082336Z 20007KT 13/03 A302 RMK A01 T01250027  RH  051%=      5-min Rain = 0
KPD4 082337Z 20006KT 12/03 A302 RMK A01 T01230026  RH  052%=      5-min Rain = 0
KPD4 082338Z 20006KT 12/03 A302 RMK A01 T01210026  RH  052%=      5-min Rain = 0
KPD4 082339Z 19006KT 12/03 A302 RMK A01 T01190025  RH  053%=      5-min Rain = 0
KPD4 082340Z 19006KT 12/03 A302 RMK A01 T01180025  RH  053%=      5-min Rain = 0
KPD4 082341Z 18006KT 12/03 A302 RMK A01 T01160025  RH  054%=      5-min Rain = 0
KPD4 082342Z 18006KT 11/03 A302 RMK A01 T01140025  RH  054%=      5-min Rain = 0
KPD4 082343Z 19006KT 11/03 A302 RMK A01 T01140026  RH  055%=      5-min Rain = 0
KPD4 082344Z 18007KT 11/03 A302 RMK A01 T01140026  RH  055%=      5-min Rain = 0
KPD4 082345Z 18007KT 11/03 A302 RMK A01 T01130026  RH  055%=      5-min Rain = 0
KPD4 082346Z 18007KT 11/03 A302 RMK A01 T01120026  RH  055%=      5-min Rain = 0
KPD4 082347Z 18007KT 11/03 A302 RMK A01 T01110026  RH  056%=      5-min Rain = 0
KPD4 082348Z 18007KT 11/03 A302 RMK A01 T01090026  RH  057%=      5-min Rain = 0
KPD4 082349Z 19007KT 11/03 A302 RMK A01 T01080028  RH  058%=      5-min Rain = 0
KPD4 082350Z 19007KT 11/03 A302 RMK A01 T01070029  RH  058%=      5-min Rain = 0
KPD4 082351Z 19007KT 11/03 A302 RMK A01 T01060029  RH  059%=      5-min Rain = 0
KPD4 082352Z 19007KT 11/03 A302 RMK A01 T01050029  RH  059%=      5-min Rain = 0
KPD4 082353Z 18007KT 10/03 A302 RMK A01 T01040030  RH  060%=      5-min Rain = 0
KPD4 082354Z 18007KT 10/03 A302 RMK A01 T01030030  RH  061%=      5-min Rain = 0
KPD4 082355Z 18008KT 10/03 A302 RMK A01 T01020031  RH  061%=      5-min Rain = 0
KPD4 082356Z 18008KT 10/03 A302 RMK A01 T01020032  RH  062%=      5-min Rain = 0
KPD4 082357Z 18007KT 10/03 A302 RMK A01 T01010032  RH  062%=      5-min Rain = 0
KPD4 082358Z 18007KT 10/03 A302 RMK A01 T01010033  RH  063%=      5-min Rain = 0
KPD4 082359Z 19007KT 10/03 A302 RMK A01 T01000032  RH  063%=      5-min Rain = 0
KPD4 090000Z 19006KT 10/03 A302 RMK A01 T00990032  RH  063%=      5-min Rain = 0
KPD4 090001Z 19006KT 10/03 A302 RMK A01 T00980032  RH  063%=      5-min Rain = 0
KPD4 090002Z 19006KT 10/03 A302 RMK A01 T00970031  RH  064%=      5-min Rain = 0
KPD4 090003Z 18006KT 10/03 A302 RMK A01 T00960031  RH  064%=      5-min Rain = 0
KPD4 090004Z 19006KT 10/03 A3021 RMK A01 T00950031  RH  064%=      5-min Rain = 0
KPD4 090005Z 19006KT 10/03 A3021 RMK A01 T00950032  RH  065%=      5-min Rain = 0
KPD4 090006Z 20006KT 09/03 A3021 RMK A01 T00940031  RH  065%=      5-min Rain = 0
KPD4 090007Z 20006KT 09/03 A3021 RMK A01 T00940031  RH  065%=      5-min Rain = 0
KPD4 090008Z 19006KT 09/03 A3021 RMK A01 T00940031  RH  065%=      5-min Rain = 0
KPD4 090009Z 19006KT 09/03 A3021 RMK A01 T00940031  RH  065%=      5-min Rain = 0
KPD4 090010Z 19006KT 09/03 A3021 RMK A01 T00940031  RH  065%=      5-min Rain = 0
KPD4 090011Z 19006KT 09/03 A3021 RMK A01 T00920029  RH  065%=      5-min Rain = 0
KPD4 090012Z 19006KT 09/03 A3021 RMK A01 T00910029  RH  065%=      5-min Rain = 0
KPD4 090013Z 19006KT 09/03 A3021 RMK A01 T00900030  RH  066%=      5-min Rain = 0
KPD4 090014Z 20006KT 09/03 A3021 RMK A01 T00900029  RH  066%=      5-min Rain = 0
KPD4 090015Z 20006KT 09/03 A3021 RMK A01 T00890030  RH  066%=      5-min Rain = 0
KPD4 090016Z 20006KT 09/03 A3021 RMK A01 T00900030  RH  066%=      5-min Rain = 0
KPD4 090017Z 20006KT 09/03 A3021 RMK A01 T00900031  RH  066%=      5-min Rain = 0
KPD4 090018Z 20006KT 09/03 A3021 RMK A01 T00910031  RH  066%=      5-min Rain = 0
KPD4 090019Z 20007KT 09/03 A3021 RMK A01 T00910030  RH  066%=      5-min Rain = 0
KPD4 090020Z 20007KT 09/03 A3021 RMK A01 T00910030  RH  066%=      5-min Rain = 0
KPD4 090021Z 20007KT 09/03 A3021 RMK A01 T00910031  RH  066%=      5-min Rain = 0
KPD4 090022Z 20007KT 09/03 A3021 RMK A01 T00900030  RH  066%=      5-min Rain = 0
KPD4 090023Z 20006KT 09/03 A3021 RMK A01 T00890030  RH  067%=      5-min Rain = 0
KPD4 090024Z 20006KT 09/03 A3021 RMK A01 T00890031  RH  067%=      5-min Rain = 0
KPD4 090025Z 20006KT 09/03 A3021 RMK A01 T00880031  RH  067%=      5-min Rain = 0
KPD4 090026Z 20006KT 09/03 A3021 RMK A01 T00890031  RH  067%=      5-min Rain = 0
KPD4 090027Z 20006KT 09/03 A3021 RMK A01 T00890031  RH  067%=      5-min Rain = 0
KPD4 090028Z 20006KT 09/03 A3021 RMK A01 T00890030  RH  067%=      5-min Rain = 0
KPD4 090029Z 20006KT 09/03 A3021 RMK A01 T00890030  RH  067%=      5-min Rain = 0
KPD4 090030Z 20007KT 09/03 A3021 RMK A01 T00880029  RH  067%=      5-min Rain = 0
KPD4 090031Z 21007KT 09/03 A3021 RMK A01 T00870029  RH  067%=      5-min Rain = 0
KPD4 090032Z 21007KT 09/03 A3021 RMK A01 T00860029  RH  067%=      5-min Rain = 0
KPD4 090033Z 21007KT 09/03 A3021 RMK A01 T00850029  RH  068%=      5-min Rain = 0
KPD4 090034Z 21007KT 09/03 A3021 RMK A01 T00850030  RH  068%=      5-min Rain = 0
KPD4 090035Z 20007KT 09/03 A3021 RMK A01 T00850030  RH  069%=      5-min Rain = 0
KPD4 090036Z 20007KT 09/03 A3021 RMK A01 T00850031  RH  069%=      5-min Rain = 0
KPD4 090037Z 20007KT 09/03 A3021 RMK A01 T00850031  RH  069%=      5-min Rain = 0
KPD4 090038Z 21007KT 09/03 A3021 RMK A01 T00850031  RH  069%=      5-min Rain = 0
KPD4 090039Z 21007KT 09/03 A3021 RMK A01 T00850032  RH  069%=      5-min Rain = 0
KPD4 090040Z 20008KT 09/03 A3021 RMK A01 T00850032  RH  069%=      5-min Rain = 0
KPD4 090041Z 20007KT 09/03 A3021 RMK A01 T00850032  RH  069%=      5-min Rain = 0
KPD4 090042Z 20007KT 09/03 A3021 RMK A01 T00860033  RH  069%=      5-min Rain = 0
KPD4 090043Z 20007KT 09/03 A3021 RMK A01 T00860032  RH  069%=      5-min Rain = 0
KPD4 090044Z 20007KT 09/03 A3021 RMK A01 T00850031  RH  069%=      5-min Rain = 0
KPD4 090045Z 20007KT 08/03 A3021 RMK A01 T00840031  RH  069%=      5-min Rain = 0
KPD4 090046Z 20007KT 08/03 A3021 RMK A01 T00830030  RH  069%=      5-min Rain = 0
KPD4 090047Z 20006KT 08/03 A3021 RMK A01 T00820031  RH  070%=      5-min Rain = 0
KPD4 090048Z 21006KT 08/03 A3021 RMK A01 T00820030  RH  070%=      5-min Rain = 0
KPD4 090049Z 20006KT 08/03 A3021 RMK A01 T00810030  RH  070%=      5-min Rain = 0
KPD4 090050Z 20005KT 08/03 A3021 RMK A01 T00800030  RH  070%=      5-min Rain = 0
KPD4 090051Z 20005KT 08/03 A3021 RMK A01 T00800030  RH  071%=      5-min Rain = 0
KPD4 090052Z 20006KT 08/03 A3021 RMK A01 T00790029  RH  071%=      5-min Rain = 0
KPD4 090053Z 20005KT 08/03 A3021 RMK A01 T00790029  RH  071%=      5-min Rain = 0
KPD4 090054Z 20005KT 08/03 A3021 RMK A01 T00780029  RH  071%=      5-min Rain = 0
KPD4 090055Z 20006KT 08/03 A3022 RMK A01 T00770029  RH  071%=      5-min Rain = 0
KPD4 090056Z 20006KT 08/03 A3022 RMK A01 T00770030  RH  072%=      5-min Rain = 0
KPD4 090057Z 20006KT 08/03 A3022 RMK A01 T00770029  RH  072%=      5-min Rain = 0
KPD4 090058Z 20006KT 08/03 A3022 RMK A01 T00770029  RH  072%=      5-min Rain = 0
KPD4 090059Z 20007KT 08/03 A3022 RMK A01 T00770030  RH  072%=      5-min Rain = 0
KPD4 090100Z 20006KT 08/03 A3022 RMK A01 T00770030  RH  072%=      5-min Rain = 0
KPD4 090101Z 20007KT 08/03 A3022 RMK A01 T00770029  RH  072%=      5-min Rain = 0
KPD4 090102Z 20007KT 08/03 A3022 RMK A01 T00760029  RH  072%=      5-min Rain = 0
KPD4 090103Z 20007KT 08/03 A3022 RMK A01 T00760030  RH  073%=      5-min Rain = 0
KPD4 090104Z 20006KT 08/03 A3022 RMK A01 T00760030  RH  073%=      5-min Rain = 0
KPD4 090105Z 20007KT 08/03 A3022 RMK A01 T00760031  RH  073%=      5-min Rain = 0
KPD4 090106Z 20007KT 08/03 A3022 RMK A01 T00750031  RH  073%=      5-min Rain = 0
KPD4 090107Z 20006KT 08/03 A3022 RMK A01 T00750031  RH  073%=      5-min Rain = 0
KPD4 090108Z 20006KT 08/03 A3022 RMK A01 T00750031  RH  073%=      5-min Rain = 0
KPD4 090109Z 20007KT 08/03 A3022 RMK A01 T00750031  RH  074%=      5-min Rain = 0
KPD4 090110Z 20006KT 08/03 A3022 RMK A01 T00750031  RH  074%=      5-min Rain = 0
KPD4 090111Z 20006KT 08/03 A3022 RMK A01 T00750031  RH  074%=      5-min Rain = 0
KPD4 090112Z 20006KT 07/03 A3022 RMK A01 T00740030  RH  074%=      5-min Rain = 0
KPD4 090113Z 20006KT 07/03 A3022 RMK A01 T00740030  RH  074%=      5-min Rain = 0
KPD4 090114Z 20006KT 07/03 A3022 RMK A01 T00740030  RH  074%=      5-min Rain = 0
KPD4 090115Z 21007KT 07/03 A3022 RMK A01 T00730030  RH  074%=      5-min Rain = 0
KPD4 090116Z 20007KT 07/03 A3022 RMK A01 T00730030  RH  074%=      5-min Rain = 0
KPD4 090117Z 20007KT 07/03 A3022 RMK A01 T00720030  RH  074%=      5-min Rain = 0
KPD4 090118Z 20007KT 07/03 A3022 RMK A01 T00720029  RH  075%=      5-min Rain = 0
KPD4 090119Z 20007KT 07/03 A3022 RMK A01 T00720030  RH  075%=      5-min Rain = 0
KPD4 090120Z 20007KT 07/03 A3022 RMK A01 T00710030  RH  075%=      5-min Rain = 0
KPD4 090121Z 20008KT 07/03 A3022 RMK A01 T00710030  RH  075%=      5-min Rain = 0
KPD4 090122Z 20008KT 07/03 A3022 RMK A01 T00710030  RH  075%=      5-min Rain = 0
KPD4 090123Z 20007KT 07/03 A3022 RMK A01 T00710030  RH  075%=      5-min Rain = 0
KPD4 090124Z 20007KT 07/03 A3022 RMK A01 T00710031  RH  075%=      5-min Rain = 0
KPD4 090125Z 20007KT 07/03 A3022 RMK A01 T00710030  RH  075%=      5-min Rain = 0
KPD4 090126Z 20007KT 07/03 A3022 RMK A01 T00720031  RH  075%=      5-min Rain = 0
KPD4 090127Z 20007KT 07/03 A3021 RMK A01 T00720031  RH  075%=      5-min Rain = 0
KPD4 090128Z 20006KT 07/03 A3021 RMK A01 T00730031  RH  075%=      5-min Rain = 0
KPD4 090129Z 19006KT 07/03 A3021 RMK A01 T00730031  RH  075%=      5-min Rain = 0
KPD4 090130Z 20006KT 07/03 A3021 RMK A01 T00720030  RH  075%=      5-min Rain = 0
KPD4 090131Z 20006KT 07/03 A3021 RMK A01 T00710029  RH  075%=      5-min Rain = 0
KPD4 090132Z 20006KT 07/03 A3021 RMK A01 T00700029  RH  075%=      5-min Rain = 0
KPD4 090133Z 20006KT 07/03 A3022 RMK A01 T00690028  RH  075%=      5-min Rain = 0
KPD4 090134Z 20006KT 07/03 A3022 RMK A01 T00690029  RH  075%=      5-min Rain = 0
KPD4 090135Z 20006KT 07/03 A3022 RMK A01 T00690029  RH  076%=      5-min Rain = 0
KPD4 090136Z 20006KT 07/03 A3022 RMK A01 T00690029  RH  076%=      5-min Rain = 0
KPD4 090137Z 20006KT 07/03 A3022 RMK A01 T00690029  RH  076%=      5-min Rain = 0
KPD4 090138Z 20006KT 07/03 A3022 RMK A01 T00690029  RH  076%=      5-min Rain = 0
KPD4 090139Z 21005KT 07/03 A3022 RMK A01 T00690029  RH  076%=      5-min Rain = 0
KPD4 090140Z 20006KT 07/03 A3022 RMK A01 T00680028  RH  076%=      5-min Rain = 0
KPD4 090141Z 21006KT 07/03 A3022 RMK A01 T00680029  RH  076%=      5-min Rain = 0
KPD4 090142Z 21005KT 07/03 A3022 RMK A01 T00680029  RH  076%=      5-min Rain = 0
KPD4 090143Z 21005KT 07/03 A3022 RMK A01 T00680029  RH  076%=      5-min Rain = 0
KPD4 090144Z 22005KT 07/03 A3022 RMK A01 T00670029  RH  076%=      5-min Rain = 0
KPD4 090145Z 22005KT 07/03 A3022 RMK A01 T00670030  RH  077%=      5-min Rain = 0
KPD4 090146Z 21007KT 07/03 A3022 RMK A01 T00670029  RH  077%=      5-min Rain = 0
KPD4 090147Z 21006KT 07/03 A3022 RMK A01 T00670030  RH  077%=      5-min Rain = 0
KPD4 090148Z 21006KT 07/03 A3022 RMK A01 T00680030  RH  077%=      5-min Rain = 0
KPD4 090149Z 21006KT 07/03 A3022 RMK A01 T00680030  RH  077%=      5-min Rain = 0
KPD4 090150Z 21006KT 07/03 A3022 RMK A01 T00680030  RH  077%=      5-min Rain = 0
KPD4 090151Z 21007KT 07/03 A3022 RMK A01 T00670029  RH  077%=      5-min Rain = 0
KPD4 090152Z 21007KT 07/03 A3022 RMK A01 T00660029  RH  077%=      5-min Rain = 0
KPD4 090153Z 21007KT 07/03 A3022 RMK A01 T00660029  RH  077%=      5-min Rain = 0
KPD4 090154Z 22007KT 07/03 A3022 RMK A01 T00650029  RH  078%=      5-min Rain = 0
KPD4 090155Z 21007KT 07/03 A3022 RMK A01 T00650029  RH  078%=      5-min Rain = 0
KPD4 090156Z 22007KT 07/03 A3022 RMK A01 T00650029  RH  078%=      5-min Rain = 0
KPD4 090157Z 21007KT 07/03 A3022 RMK A01 T00650029  RH  078%=      5-min Rain = 0
KPD4 090158Z 22007KT 07/03 A3022 RMK A01 T00650029  RH  078%=      5-min Rain = 0
KPD4 090159Z 22007KT 06/03 A3022 RMK A01 T00640029  RH  078%=      5-min Rain = 0
KPD4 090200Z 22007KT 06/03 A3022 RMK A01 T00640028  RH  078%=      5-min Rain = 0
KPD4 090201Z 22008KT 06/03 A3022 RMK A01 T00640029  RH  078%=      5-min Rain = 0
KPD4 090202Z 21008KT 06/03 A3022 RMK A01 T00640030  RH  079%=      5-min Rain = 0
KPD4 090203Z 21008KT 07/03 A3022 RMK A01 T00660031  RH  079%=      5-min Rain = 0
KPD4 090204Z 22008KT 07/03 A3022 RMK A01 T00670031  RH  078%=      5-min Rain = 0
KPD4 090205Z 21007KT 07/03 A3022 RMK A01 T00670031  RH  078%=      5-min Rain = 0
KPD4 090206Z 21007KT 07/03 A3022 RMK A01 T00670031  RH  077%=      5-min Rain = 0
KPD4 090207Z 21006KT 07/03 A3022 RMK A01 T00670030  RH  077%=      5-min Rain = 0
KPD4 090208Z 21006KT 07/03 A3022 RMK A01 T00650028  RH  077%=      5-min Rain = 0
KPD4 090209Z 20006KT 06/03 A3022 RMK A01 T00630028  RH  078%=      5-min Rain = 0
KPD4 090210Z 20005KT 06/03 A3022 RMK A01 T00630028  RH  078%=      5-min Rain = 0
KPD4 090211Z 20005KT 06/03 A3022 RMK A01 T00620028  RH  079%=      5-min Rain = 0
KPD4 090212Z 20004KT 06/03 A3022 RMK A01 T00620028  RH  079%=      5-min Rain = 0
KPD4 090213Z 20005KT 06/03 A3022 RMK A01 T00620028  RH  079%=      5-min Rain = 0
KPD4 090214Z 20005KT 06/03 A3022 RMK A01 T00630028  RH  079%=      5-min Rain = 0
KPD4 090215Z 21005KT 06/03 A3022 RMK A01 T00620029  RH  079%=      5-min Rain = 0
KPD4 090216Z 21005KT 06/03 A3022 RMK A01 T00620029  RH  079%=      5-min Rain = 0
KPD4 090217Z 21005KT 06/03 A3022 RMK A01 T00630030  RH  079%=      5-min Rain = 0
KPD4 090218Z 20005KT 06/03 A3022 RMK A01 T00630029  RH  079%=      5-min Rain = 0
KPD4 090219Z 20004KT 06/03 A3022 RMK A01 T00630029  RH  079%=      5-min Rain = 0
KPD4 090220Z 21004KT 06/03 A3022 RMK A01 T00630028  RH  079%=      5-min Rain = 0
KPD4 090221Z 20004KT 06/03 A3022 RMK A01 T00620028  RH  079%=      5-min Rain = 0
KPD4 090222Z 20004KT 06/03 A3022 RMK A01 T00610027  RH  079%=      5-min Rain = 0
KPD4 090223Z 20004KT 06/03 A3022 RMK A01 T00600027  RH  079%=      5-min Rain = 0
KPD4 090224Z 20005KT 06/03 A3022 RMK A01 T00600027  RH  079%=      5-min Rain = 0
KPD4 090225Z 20004KT 06/03 A3022 RMK A01 T00600028  RH  080%=      5-min Rain = 0
KPD4 090226Z 20005KT 06/03 A3022 RMK A01 T00610027  RH  079%=      5-min Rain = 0
KPD4 090227Z 20004KT 06/03 A3022 RMK A01 T00600027  RH  079%=      5-min Rain = 0
KPD4 090228Z 20004KT 06/03 A3022 RMK A01 T00590026  RH  079%=      5-min Rain = 0
KPD4 090229Z 20004KT 06/03 A3022 RMK A01 T00590026  RH  080%=      5-min Rain = 0
KPD4 090230Z 20004KT 06/03 A3022 RMK A01 T00580027  RH  080%=      5-min Rain = 0
KPD4 090231Z 19004KT 06/03 A3022 RMK A01 T00580027  RH  080%=      5-min Rain = 0
KPD4 090232Z 19004KT 06/03 A3022 RMK A01 T00580027  RH  081%=      5-min Rain = 0
KPD4 090233Z 19004KT 06/03 A3022 RMK A01 T00590027  RH  080%=      5-min Rain = 0
KPD4 090234Z 19004KT 06/03 A3022 RMK A01 T00590028  RH  080%=      5-min Rain = 0
KPD4 090235Z 20005KT 06/03 A3022 RMK A01 T00590027  RH  079%=      5-min Rain = 0
KPD4 090236Z 20005KT 06/03 A3022 RMK A01 T00590027  RH  080%=      5-min Rain = 0
KPD4 090237Z 20004KT 06/03 A3022 RMK A01 T00590027  RH  080%=      5-min Rain = 0
KPD4 090238Z 20005KT 06/03 A3022 RMK A01 T00580026  RH  080%=      5-min Rain = 0
KPD4 090239Z 20004KT 06/03 A3022 RMK A01 T00580027  RH  080%=      5-min Rain = 0
KPD4 090240Z 20005KT 06/03 A3022 RMK A01 T00580025  RH  080%=      5-min Rain = 0
KPD4 090241Z 20006KT 06/02 A3022 RMK A01 T00550023  RH  080%=      5-min Rain = 0
KPD4 090242Z 20006KT 05/02 A3022 RMK A01 T00530023  RH  080%=      5-min Rain = 0
KPD4 090243Z 20006KT 05/02 A3022 RMK A01 T00520022  RH  081%=      5-min Rain = 0
KPD4 090244Z 20006KT 05/02 A3022 RMK A01 T00510023  RH  082%=      5-min Rain = 0
KPD4 090245Z 20006KT 05/02 A3022 RMK A01 T00500023  RH  083%=      5-min Rain = 0
KPD4 090246Z 20005KT 05/02 A3022 RMK A01 T00500023  RH  083%=      5-min Rain = 0
KPD4 090247Z 20005KT 05/02 A3022 RMK A01 T00480022  RH  083%=      5-min Rain = 0
KPD4 090248Z 21005KT 05/02 A3022 RMK A01 T00470021  RH  083%=      5-min Rain = 0
KPD4 090249Z 21005KT 05/02 A3022 RMK A01 T00470021  RH  083%=      5-min Rain = 0
KPD4 090250Z 21006KT 05/02 A3022 RMK A01 T00460021  RH  084%=      5-min Rain = 0
KPD4 090251Z 21005KT 05/02 A3022 RMK A01 T00460021  RH  084%=      5-min Rain = 0
KPD4 090252Z 21005KT 05/02 A3022 RMK A01 T00450020  RH  084%=      5-min Rain = 0
KPD4 090253Z 21006KT 04/02 A3022 RMK A01 T00440020  RH  084%=      5-min Rain = 0
KPD4 090254Z 22005KT 04/02 A3022 RMK A01 T00440020  RH  085%=      5-min Rain = 0
KPD4 090255Z 21005KT 04/02 A3022 RMK A01 T00430020  RH  085%=      5-min Rain = 0
KPD4 090256Z 21005KT 04/02 A3022 RMK A01 T00430019  RH  085%=      5-min Rain = 0
KPD4 090257Z 21005KT 04/02 A3022 RMK A01 T00420020  RH  085%=      5-min Rain = 0
KPD4 090258Z 21005KT 04/02 A3022 RMK A01 T00420020  RH  085%=      5-min Rain = 0
KPD4 090259Z 21005KT 04/02 A3022 RMK A01 T00420020  RH  086%=      5-min Rain = 0
KPD4 090300Z 21005KT 04/02 A3022 RMK A01 T00420020  RH  085%=      5-min Rain = 0
KPD4 090301Z 21005KT 04/02 A3022 RMK A01 T00420020  RH  086%=      5-min Rain = 0
KPD4 090302Z 21005KT 04/02 A3022 RMK A01 T00420020  RH  086%=      5-min Rain = 0
KPD4 090303Z 21004KT 04/02 A3022 RMK A01 T00420020  RH  086%=      5-min Rain = 0
KPD4 090304Z 22005KT 04/02 A3022 RMK A01 T00420021  RH  086%=      5-min Rain = 0
KPD4 090305Z 22005KT 04/02 A3022 RMK A01 T00420021  RH  086%=      5-min Rain = 0
KPD4 090306Z 22005KT 04/02 A3022 RMK A01 T00430022  RH  087%=      5-min Rain = 0
KPD4 090307Z 22006KT 04/02 A3022 RMK A01 T00440023  RH  086%=      5-min Rain = 0
KPD4 090308Z 21005KT 04/02 A3022 RMK A01 T00440023  RH  086%=      5-min Rain = 0
KPD4 090309Z 21006KT 05/02 A3022 RMK A01 T00450024  RH  086%=      5-min Rain = 0
KPD4 090310Z 21006KT 05/02 A3022 RMK A01 T00460024  RH  086%=      5-min Rain = 0
KPD4 090311Z 21006KT 05/02 A3022 RMK A01 T00470024  RH  085%=      5-min Rain = 0
KPD4 090312Z 21006KT 05/02 A3022 RMK A01 T00480024  RH  085%=      5-min Rain = 0
KPD4 090313Z 21006KT 05/02 A3022 RMK A01 T00480024  RH  085%=      5-min Rain = 0
KPD4 090314Z 21006KT 05/02 A3023 RMK A01 T00480024  RH  084%=      5-min Rain = 0
KPD4 090315Z 20006KT 05/02 A3023 RMK A01 T00470023  RH  084%=      5-min Rain = 0
KPD4 090316Z 20005KT 05/02 A3023 RMK A01 T00470023  RH  084%=      5-min Rain = 0
KPD4 090317Z 21005KT 05/02 A3023 RMK A01 T00470024  RH  085%=      5-min Rain = 0
KPD4 090318Z 21005KT 05/02 A3023 RMK A01 T00470024  RH  085%=      5-min Rain = 0
KPD4 090319Z 21005KT 05/02 A3023 RMK A01 T00470024  RH  085%=      5-min Rain = 0
KPD4 090320Z 21005KT 05/03 A3023 RMK A01 T00480025  RH  085%=      5-min Rain = 0
KPD4 090321Z 21005KT 05/03 A3023 RMK A01 T00480025  RH  085%=      5-min Rain = 0
KPD4 090322Z 21005KT 05/02 A3023 RMK A01 T00490024  RH  084%=      5-min Rain = 0
KPD4 090323Z 21005KT 05/02 A3023 RMK A01 T00480023  RH  084%=      5-min Rain = 0
KPD4 090324Z 21005KT 05/02 A3023 RMK A01 T00460021  RH  084%=      5-min Rain = 0
KPD4 090325Z 21005KT 05/02 A3023 RMK A01 T00450021  RH  084%=      5-min Rain = 0
KPD4 090326Z 22005KT 04/02 A3023 RMK A01 T00440020  RH  085%=      5-min Rain = 0
KPD4 090327Z 22005KT 04/02 A3023 RMK A01 T00420018  RH  085%=      5-min Rain = 0
KPD4 090328Z 22005KT 04/02 A3023 RMK A01 T00400018  RH  085%=      5-min Rain = 0
KPD4 090329Z 22006KT 04/02 A3023 RMK A01 T00390017  RH  086%=      5-min Rain = 0
KPD4 090330Z 22006KT 04/02 A3023 RMK A01 T00380017  RH  086%=      5-min Rain = 0
KPD4 090331Z 23007KT 04/02 A3023 RMK A01 T00370018  RH  087%=      5-min Rain = 0
KPD4 090332Z 23007KT 04/02 A3023 RMK A01 T00370019  RH  088%=      5-min Rain = 0
KPD4 090333Z 23007KT 04/02 A3023 RMK A01 T00380021  RH  089%=      5-min Rain = 0
KPD4 090334Z 23008KT 04/02 A3023 RMK A01 T00390022  RH  089%=      5-min Rain = 0
KPD4 090335Z 23007KT 04/02 A3023 RMK A01 T00400023  RH  089%=      5-min Rain = 0
KPD4 090336Z 23008KT 04/02 A3023 RMK A01 T00410024  RH  088%=      5-min Rain = 0
KPD4 090337Z 23008KT 04/02 A3022 RMK A01 T00420024  RH  088%=      5-min Rain = 0
KPD4 090338Z 23008KT 04/02 A3023 RMK A01 T00430023  RH  087%=      5-min Rain = 0
KPD4 090339Z 23008KT 04/02 A3023 RMK A01 T00430022  RH  087%=      5-min Rain = 0
KPD4 090340Z 23008KT 04/02 A3023 RMK A01 T00420021  RH  087%=      5-min Rain = 0
KPD4 090341Z 23008KT 04/02 A3023 RMK A01 T00410021  RH  087%=      5-min Rain = 0
KPD4 090342Z 23009KT 04/02 A3023 RMK A01 T00410021  RH  087%=      5-min Rain = 0
KPD4 090343Z 23009KT 04/02 A3022 RMK A01 T00410021  RH  087%=      5-min Rain = 0
KPD4 090344Z 23010KT 04/02 A3022 RMK A01 T00420021  RH  086%=      5-min Rain = 0
KPD4 090345Z 23010KT 04/02 A3022 RMK A01 T00410020  RH  086%=      5-min Rain = 0
KPD4 090346Z 23010KT 04/02 A3022 RMK A01 T00410021  RH  086%=      5-min Rain = 0
KPD4 090347Z 23010KT 04/02 A3022 RMK A01 T00410020  RH  087%=      5-min Rain = 0
KPD4 090348Z 23010KT 04/02 A3022 RMK A01 T00400020  RH  087%=      5-min Rain = 0
KPD4 090349Z 24011KT 04/02 A3022 RMK A01 T00400020  RH  087%=      5-min Rain = 0
KPD4 090350Z 23011KT 04/02 A3022 RMK A01 T00400020  RH  087%=      5-min Rain = 0
KPD4 090351Z 24011KT 04/02 A3022 RMK A01 T00400020  RH  087%=      5-min Rain = 0
KPD4 090352Z 23011KT 04/02 A3022 RMK A01 T00400020  RH  087%=      5-min Rain = 0
KPD4 090353Z 23011KT 04/02 A3022 RMK A01 T00390019  RH  087%=      5-min Rain = 0
KPD4 090354Z 23011KT 04/02 A3022 RMK A01 T00390020  RH  087%=      5-min Rain = 0
KPD4 090355Z 23011KT 04/02 A3022 RMK A01 T00390019  RH  087%=      5-min Rain = 0
KPD4 090356Z 23010KT 04/02 A3022 RMK A01 T00400021  RH  088%=      5-min Rain = 0
KPD4 090357Z 22009KT 04/02 A3022 RMK A01 T00410022  RH  088%=      5-min Rain = 0
KPD4 090358Z 22009KT 04/02 A3022 RMK A01 T00420023  RH  087%=      5-min Rain = 0
KPD4 090359Z 22008KT 04/02 A3022 RMK A01 T00430024  RH  087%=      5-min Rain = 0
KPD4 090400Z 22008KT 04/02 A3022 RMK A01 T00440024  RH  087%=      5-min Rain = 0
KPD4 090401Z 22008KT 05/02 A3022 RMK A01 T00450024  RH  087%=      5-min Rain = 0
KPD4 090402Z 22007KT 05/02 A3022 RMK A01 T00460024  RH  086%=      5-min Rain = 0
KPD4 090403Z 22007KT 05/02 A3022 RMK A01 T00460024  RH  086%=      5-min Rain = 0
KPD4 090404Z 22007KT 05/02 A3022 RMK A01 T00460024  RH  085%=      5-min Rain = 0
KPD4 090405Z 22008KT 05/02 A3023 RMK A01 T00460023  RH  085%=      5-min Rain = 0
KPD4 090406Z 21007KT 05/02 A3023 RMK A01 T00460024  RH  085%=      5-min Rain = 0
KPD4 090407Z 21007KT 05/02 A3023 RMK A01 T00460023  RH  085%=      5-min Rain = 0
KPD4 090408Z 21007KT 05/02 A3023 RMK A01 T00470023  RH  085%=      5-min Rain = 0
KPD4 090409Z 22007KT 05/02 A3023 RMK A01 T00460023  RH  085%=      5-min Rain = 0
KPD4 090410Z 22007KT 05/02 A3023 RMK A01 T00460023  RH  085%=      5-min Rain = 0
KPD4 090411Z 22008KT 05/02 A3023 RMK A01 T00460022  RH  085%=      5-min Rain = 0
KPD4 090412Z 22008KT 05/02 A3023 RMK A01 T00460023  RH  085%=      5-min Rain = 0
KPD4 090413Z 23008KT 05/02 A3023 RMK A01 T00460023  RH  085%=      5-min Rain = 0
KPD4 090414Z 23009KT 05/02 A3022 RMK A01 T00460023  RH  085%=      5-min Rain = 0
KPD4 090415Z 23010KT 05/02 A3022 RMK A01 T00470023  RH  085%=      5-min Rain = 0
KPD4 090416Z 23010KT 05/02 A3023 RMK A01 T00480024  RH  084%=      5-min Rain = 0
KPD4 090417Z 23009KT 05/02 A3023 RMK A01 T00480023  RH  084%=      5-min Rain = 0
KPD4 090418Z 24009KT 05/02 A3023 RMK A01 T00480023  RH  084%=      5-min Rain = 0
KPD4 090419Z 24010KT 05/02 A3023 RMK A01 T00480023  RH  084%=      5-min Rain = 0
KPD4 090420Z 24010KT 05/02 A3023 RMK A01 T00480023  RH  084%=      5-min Rain = 0
KPD4 090421Z 23010KT 05/02 A3023 RMK A01 T00480023  RH  084%=      5-min Rain = 0
KPD4 090422Z 23009KT 05/02 A3023 RMK A01 T00470022  RH  084%=      5-min Rain = 0
KPD4 090423Z 23009KT 05/02 A3023 RMK A01 T00470023  RH  084%=      5-min Rain = 0
KPD4 090424Z 24009KT 05/02 A3023 RMK A01 T00470023  RH  084%=      5-min Rain = 0
KPD4 090425Z 23009KT 05/02 A3023 RMK A01 T00470022  RH  084%=      5-min Rain = 0
KPD4 090426Z 23009KT 05/02 A3023 RMK A01 T00460021  RH  084%=      5-min Rain = 0
KPD4 090427Z 23009KT 05/02 A3023 RMK A01 T00450021  RH  085%=      5-min Rain = 0
KPD4 090428Z 23009KT 05/02 A3023 RMK A01 T00450022  RH  085%=      5-min Rain = 0
KPD4 090429Z 23008KT 05/02 A3023 RMK A01 T00450022  RH  085%=      5-min Rain = 0
KPD4 090430Z 23009KT 05/02 A3023 RMK A01 T00450022  RH  085%=      5-min Rain = 0
KPD4 090431Z 22008KT 05/02 A3023 RMK A01 T00460022  RH  085%=      5-min Rain = 0
KPD4 090432Z 22008KT 05/02 A3023 RMK A01 T00460022  RH  085%=      5-min Rain = 0
KPD4 090433Z 22008KT 05/02 A3023 RMK A01 T00450022  RH  085%=      5-min Rain = 0
KPD4 090434Z 23008KT 05/02 A3023 RMK A01 T00450023  RH  085%=      5-min Rain = 0
KPD4 090435Z 23007KT 05/02 A3023 RMK A01 T00450023  RH  085%=      5-min Rain = 0
KPD4 090436Z 23007KT 05/02 A3023 RMK A01 T00450022  RH  085%=      5-min Rain = 0
KPD4 090437Z 22007KT 05/02 A3023 RMK A01 T00450022  RH  085%=      5-min Rain = 0
KPD4 090438Z 22006KT 04/02 A3023 RMK A01 T00440021  RH  085%=      5-min Rain = 0
KPD4 090439Z 22005KT 04/02 A3023 RMK A01 T00440021  RH  085%=      5-min Rain = 0
KPD4 090440Z 23005KT 04/02 A3023 RMK A01 T00420019  RH  085%=      5-min Rain = 0
KPD4 090441Z 23006KT 04/02 A3023 RMK A01 T00410019  RH  086%=      5-min Rain = 0
KPD4 090442Z 22006KT 04/02 A3023 RMK A01 T00410019  RH  086%=      5-min Rain = 0
KPD4 090443Z 22005KT 04/02 A3023 RMK A01 T00400018  RH  086%=      5-min Rain = 0
KPD4 090444Z 22005KT 04/02 A3023 RMK A01 T00380017  RH  086%=      5-min Rain = 0
KPD4 090445Z 22005KT 04/02 A3023 RMK A01 T00380017  RH  087%=      5-min Rain = 0
KPD4 090446Z 22005KT 04/02 A3023 RMK A01 T00370018  RH  087%=      5-min Rain = 0
KPD4 090447Z 22006KT 04/02 A3023 RMK A01 T00370019  RH  088%=      5-min Rain = 0
KPD4 090448Z 23005KT 04/02 A3023 RMK A01 T00380019  RH  087%=      5-min Rain = 0
KPD4 090449Z 23006KT 04/02 A3024 RMK A01 T00380019  RH  088%=      5-min Rain = 0
KPD4 090450Z 23006KT 04/02 A3024 RMK A01 T00380020  RH  088%=      5-min Rain = 0
KPD4 090451Z 23006KT 04/02 A3024 RMK A01 T00390020  RH  088%=      5-min Rain = 0
KPD4 090452Z 23006KT 04/02 A3024 RMK A01 T00390020  RH  087%=      5-min Rain = 0
KPD4 090453Z 23007KT 04/02 A3023 RMK A01 T00390020  RH  087%=      5-min Rain = 0
KPD4 090454Z 23007KT 04/02 A3023 RMK A01 T00390020  RH  087%=      5-min Rain = 0
KPD4 090455Z 23008KT 04/02 A3023 RMK A01 T00390020  RH  087%=      5-min Rain = 0
KPD4 090456Z 23008KT 04/02 A3023 RMK A01 T00400020  RH  087%=      5-min Rain = 0
KPD4 090457Z 23008KT 04/02 A3023 RMK A01 T00400021  RH  087%=      5-min Rain = 0
KPD4 090458Z 23008KT 04/02 A3024 RMK A01 T00400020  RH  087%=      5-min Rain = 0
KPD4 090459Z 23007KT 04/02 A3024 RMK A01 T00400021  RH  087%=      5-min Rain = 0
KPD4 090500Z 23007KT 04/02 A3024 RMK A01 T00400021  RH  087%=      5-min Rain = 0
KPD4 090501Z 23007KT 04/02 A3023 RMK A01 T00410022  RH  088%=      5-min Rain = 0
KPD4 090502Z 24008KT 04/02 A3023 RMK A01 T00420023  RH  087%=      5-min Rain = 0
KPD4 090503Z 23007KT 04/02 A3023 RMK A01 T00420022  RH  087%=      5-min Rain = 0
KPD4 090504Z 23007KT 04/02 A3023 RMK A01 T00410021  RH  087%=      5-min Rain = 0
KPD4 090505Z 22006KT 04/02 A3023 RMK A01 T00410021  RH  087%=      5-min Rain = 0
KPD4 090506Z 22006KT 04/02 A3023 RMK A01 T00400020  RH  087%=      5-min Rain = 0
KPD4 090507Z 22006KT 04/02 A3023 RMK A01 T00400020  RH  087%=      5-min Rain = 0
KPD4 090508Z 23007KT 04/02 A3023 RMK A01 T00390020  RH  087%=      5-min Rain = 0
KPD4 090509Z 23008KT 04/02 A3023 RMK A01 T00390019  RH  087%=      5-min Rain = 0
KPD4 090510Z 23008KT 04/02 A3023 RMK A01 T00390020  RH  088%=      5-min Rain = 0
KPD4 090511Z 23008KT 04/02 A3023 RMK A01 T00400021  RH  088%=      5-min Rain = 0
KPD4 090512Z 23008KT 04/02 A3023 RMK A01 T00400021  RH  087%=      5-min Rain = 0
KPD4 090513Z 23007KT 04/02 A3023 RMK A01 T00400020  RH  087%=      5-min Rain = 0
KPD4 090514Z 23008KT 04/02 A3023 RMK A01 T00390020  RH  087%=      5-min Rain = 0
KPD4 090515Z 22008KT 04/02 A3023 RMK A01 T00390020  RH  087%=      5-min Rain = 0
KPD4 090516Z 23008KT 04/02 A3023 RMK A01 T00390020  RH  087%=      5-min Rain = 0
KPD4 090517Z 23008KT 04/02 A3023 RMK A01 T00390020  RH  088%=      5-min Rain = 0
KPD4 090518Z 23008KT 04/02 A3023 RMK A01 T00390020  RH  088%=      5-min Rain = 0
KPD4 090519Z 22008KT 04/02 A3023 RMK A01 T00380019  RH  088%=      5-min Rain = 0
KPD4 090520Z 22008KT 04/02 A3023 RMK A01 T00380020  RH  088%=      5-min Rain = 0
KPD4 090521Z 23008KT 04/02 A3023 RMK A01 T00390021  RH  088%=      5-min Rain = 0
KPD4 090522Z 22009KT 04/02 A3023 RMK A01 T00400021  RH  088%=      5-min Rain = 0
KPD4 090523Z 22009KT 04/02 A3023 RMK A01 T00400021  RH  088%=      5-min Rain = 0
KPD4 090524Z 23009KT 04/02 A3022 RMK A01 T00400022  RH  088%=      5-min Rain = 0
KPD4 090525Z 23010KT 04/02 A3022 RMK A01 T00420023  RH  088%=      5-min Rain = 0
KPD4 090526Z 23009KT 04/02 A3022 RMK A01 T00430023  RH  087%=      5-min Rain = 0
KPD4 090527Z 22010KT 04/02 A3022 RMK A01 T00430023  RH  087%=      5-min Rain = 0
KPD4 090528Z 23009KT 04/02 A3022 RMK A01 T00430024  RH  087%=      5-min Rain = 0
KPD4 090529Z 23009KT 04/02 A3022 RMK A01 T00440024  RH  087%=      5-min Rain = 0
KPD4 090530Z 23008KT 04/02 A3022 RMK A01 T00440023  RH  087%=      5-min Rain = 0
KPD4 090531Z 23008KT 04/02 A3022 RMK A01 T00440023  RH  086%=      5-min Rain = 0
KPD4 090532Z 23008KT 04/02 A3022 RMK A01 T00440024  RH  087%=      5-min Rain = 0
KPD4 090533Z 23007KT 05/02 A3022 RMK A01 T00450024  RH  086%=      5-min Rain = 0
KPD4 090534Z 23007KT 05/02 A3022 RMK A01 T00450024  RH  086%=      5-min Rain = 0
KPD4 090535Z 23007KT 04/02 A3022 RMK A01 T00440022  RH  086%=      5-min Rain = 0
KPD4 090536Z 23008KT 04/02 A3022 RMK A01 T00440022  RH  086%=      5-min Rain = 0
KPD4 090537Z 23007KT 04/02 A3022 RMK A01 T00430022  RH  086%=      5-min Rain = 0
KPD4 090538Z 23007KT 04/02 A3022 RMK A01 T00420021  RH  086%=      5-min Rain = 0
KPD4 090539Z 23008KT 04/02 A3022 RMK A01 T00410020  RH  086%=      5-min Rain = 0
KPD4 090540Z 22008KT 04/02 A3022 RMK A01 T00410021  RH  087%=      5-min Rain = 0
KPD4 090541Z 23007KT 04/02 A3022 RMK A01 T00400020  RH  087%=      5-min Rain = 0
KPD4 090542Z 23007KT 04/02 A3022 RMK A01 T00400020  RH  087%=      5-min Rain = 0
KPD4 090543Z 22007KT 04/02 A3022 RMK A01 T00390020  RH  087%=      5-min Rain = 0
KPD4 090544Z 22007KT 04/02 A3022 RMK A01 T00390020  RH  087%=      5-min Rain = 0
KPD4 090545Z 22006KT 04/02 A3022 RMK A01 T00390020  RH  088%=      5-min Rain = 0
KPD4 090546Z 22006KT 04/02 A3022 RMK A01 T00390020  RH  088%=      5-min Rain = 0
KPD4 090547Z 22007KT 04/02 A3022 RMK A01 T00370018  RH  087%=      5-min Rain = 0
KPD4 090548Z 22007KT 04/02 A3022 RMK A01 T00370018  RH  088%=      5-min Rain = 0
KPD4 090549Z 22007KT 04/02 A3022 RMK A01 T00360019  RH  088%=      5-min Rain = 0
KPD4 090550Z 23007KT 04/02 A3022 RMK A01 T00360019  RH  088%=      5-min Rain = 0
KPD4 090551Z 23007KT 04/02 A3022 RMK A01 T00360019  RH  088%=      5-min Rain = 0
KPD4 090552Z 23007KT 04/02 A3022 RMK A01 T00360019  RH  089%=      5-min Rain = 0
KPD4 090553Z 23008KT 04/02 A3022 RMK A01 T00360019  RH  089%=      5-min Rain = 0
KPD4 090554Z 23008KT 04/02 A3022 RMK A01 T00370019  RH  088%=      5-min Rain = 0
KPD4 090555Z 23008KT 04/02 A3022 RMK A01 T00370019  RH  088%=      5-min Rain = 0
KPD4 090556Z 23009KT 04/02 A3022 RMK A01 T00370019  RH  088%=      5-min Rain = 0
KPD4 090557Z 23008KT 04/02 A3022 RMK A01 T00370019  RH  088%=      5-min Rain = 0
KPD4 090558Z 23009KT 04/02 A3022 RMK A01 T00370018  RH  088%=      5-min Rain = 0
KPD4 090559Z 23008KT 04/02 A3022 RMK A01 T00360017  RH  088%=      5-min Rain = 0

Page generated in 0.1187 seconds.